| time (UTC) | temp C | wind direction | speed KPH | gust KPH | rain 1hr cm | rain 24hr cm | rain mn cm | humidity % | barometer mb |
| 20260510224817 | 28 | 161 | 3.2 | 4.8 | 0.00 | 0.00 | 0.00 | 39 | 1014.6 |
| 20260510224725 | 29 | 147 | 3.2 | 4.8 | 0.00 | 0.00 | 0.00 | 39 | 1014.6 |
| 20260510224613 | 29 | 161 | 1.6 | 3.2 | 0.00 | 0.00 | 0.00 | 39 | 1014.7 |
| 20260510224540 | 29 | 207 | 1.6 | 3.2 | 0.00 | 0.00 | 0.00 | 39 | 1014.7 |
| 20260510224448 | 29 | 207 | 0.0 | 4.8 | 0.00 | 0.00 | 0.00 | 39 | 1014.7 |
| 20260510224317 | 29 | 207 | 0.0 | 4.8 | 0.00 | 0.00 | 0.00 | 39 | 1014.7 |
| 20260510224226 | 29 | 207 | 0.0 | 4.8 | 0.00 | 0.00 | 0.00 | 39 | 1014.7 |
| 20260510224112 | 29 | 207 | 0.0 | 4.8 | 0.00 | 0.00 | 0.00 | 39 | 1014.7 |
| 20260510224021 | 29 | 346 | 0.0 | 8.0 | 0.00 | 0.00 | 0.00 | 39 | 1014.7 |
| 20260510223949 | 29 | 346 | 1.6 | 8.0 | 0.00 | 0.00 | 0.00 | 39 | 1014.7 |
| 20260510223835 | 29 | 346 | 1.6 | 8.0 | 0.00 | 0.00 | 0.00 | 39 | 1014.8 |
| 20260510223725 | 29 | 346 | 1.6 | 8.0 | 0.00 | 0.00 | 0.00 | 39 | 1014.8 |
| 20260510223603 | 29 | 346 | 1.6 | 8.0 | 0.00 | 0.00 | 0.00 | 40 | 1014.8 |
| 20260510223317 | 29 | 13 | 3.2 | 9.7 | 0.00 | 0.00 | 0.00 | 41 | 1014.8 |
| 20260510223226 | 29 | 13 | 3.2 | 9.7 | 0.00 | 0.00 | 0.00 | 41 | 1014.8 |
| 20260510223116 | 29 | 52 | 4.8 | 9.7 | 0.00 | 0.00 | 0.00 | 41 | 1014.7 |
| 20260510223024 | 29 | 31 | 4.8 | 9.7 | 0.00 | 0.00 | 0.00 | 41 | 1014.7 |
| 20260510222951 | 29 | 15 | 4.8 | 9.7 | 0.00 | 0.00 | 0.00 | 41 | 1014.8 |
| 20260510222817 | 29 | 349 | 4.8 | 9.7 | 0.00 | 0.00 | 0.00 | 41 | 1014.7 |
| 20260510222726 | 29 | 360 | 6.4 | 9.7 | 0.00 | 0.00 | 0.00 | 40 | 1014.7 |
| 20260510222617 | 29 | 30 | 6.4 | 9.7 | 0.00 | 0.00 | 0.00 | 42 | 1014.7 |
| 20260510222525 | 29 | 5 | 6.4 | 11.3 | 0.00 | 0.00 | 0.00 | 42 | 1014.7 |
| 20260510222452 | 29 | 19 | 6.4 | 8.0 | 0.00 | 0.00 | 0.00 | 41 | 1014.8 |
| 20260510222317 | 29 | 5 | 4.8 | 8.0 | 0.00 | 0.00 | 0.00 | 41 | 1014.8 |
| 20260510222244 | 29 | 355 | 4.8 | 8.0 | 0.00 | 0.00 | 0.00 | 41 | 1014.8 |
| 20260510222132 | 29 | 360 | 4.8 | 8.0 | 0.00 | 0.00 | 0.00 | 41 | 1014.8 |
| 20260510222046 | 29 | 355 | 3.2 | 8.0 | 0.00 | 0.00 | 0.00 | 41 | 1014.8 |
| 20260510221820 | 29 | 328 | 1.6 | 8.0 | 0.00 | 0.00 | 0.00 | 40 | 1014.8 |
| 20260510221728 | 29 | 309 | 1.6 | 8.0 | 0.00 | 0.00 | 0.00 | 40 | 1014.8 |
| 20260510221616 | 29 | 348 | 0.0 | 8.0 | 0.00 | 0.00 | 0.00 | 40 | 1014.8 |
| 20260510221523 | 29 | 355 | 0.0 | 8.0 | 0.00 | 0.00 | 0.00 | 41 | 1014.8 |
| 20260510221433 | 29 | 355 | 1.6 | 8.0 | 0.00 | 0.00 | 0.00 | 40 | 1014.9 |
| 20260510221319 | 29 | 355 | 3.2 | 8.0 | 0.00 | 0.00 | 0.00 | 41 | 1015.0 |
| 20260510221226 | 29 | 355 | 4.8 | 8.0 | 0.00 | 0.00 | 0.00 | 41 | 1015.0 |
| 20260510221113 | 29 | 341 | 6.4 | 8.0 | 0.00 | 0.00 | 0.00 | 41 | 1014.9 |
| 20260510221019 | 29 | 329 | 4.8 | 8.0 | 0.00 | 0.00 | 0.00 | 41 | 1014.9 |
| 20260510220927 | 29 | 321 | 4.8 | 8.0 | 0.00 | 0.00 | 0.00 | 42 | 1014.9 |
| 20260510220839 | 29 | 321 | 3.2 | 8.0 | 0.00 | 0.00 | 0.00 | 42 | 1014.9 |
| 20260510220724 | 29 | 351 | 4.8 | 8.0 | 0.00 | 0.00 | 0.00 | 42 | 1014.9 |
| 20260510220632 | 29 | 360 | 3.2 | 8.0 | 0.00 | 0.00 | 0.00 | 41 | 1014.9 |
| 20260510220602 | 29 | 17 | 3.2 | 12.9 | 0.00 | 0.00 | 0.00 | 43 | 1014.8 |
| 20260510220335 | 29 | 15 | 1.6 | 12.9 | 0.00 | 0.00 | 0.00 | 40 | 1014.8 |
| 20260510220227 | 29 | 337 | 3.2 | 12.9 | 0.00 | 0.00 | 0.00 | 40 | 1014.8 |
| 20260510220114 | 29 | 28 | 4.8 | 12.9 | 0.00 | 0.00 | 0.00 | 41 | 1015.0 |
| 20260510220022 | 28 | 36 | 4.8 | 12.9 | 0.00 | 0.00 | 0.00 | 41 | 1015.0 |
| 20260510215929 | 28 | 18 | 4.8 | 12.9 | 0.00 | 0.00 | 0.00 | 41 | 1014.9 |
| 20260510215816 | 28 | 320 | 4.8 | 12.9 | 0.00 | 0.00 | 0.00 | 40 | 1015.0 |
| 20260510215723 | 28 | 355 | 6.4 | 12.9 | 0.00 | 0.00 | 0.00 | 42 | 1015.0 |
| 20260510215615 | 28 | 15 | 4.8 | 12.9 | 0.00 | 0.00 | 0.00 | 42 | 1014.9 |
| 20260510215523 | 28 | 13 | 3.2 | 9.7 | 0.00 | 0.00 | 0.00 | 41 | 1014.9 |
| 20260510215431 | 28 | 355 | 4.8 | 9.7 | 0.00 | 0.00 | 0.00 | 41 | 1014.9 |
| 20260510215318 | 28 | 290 | 4.8 | 9.7 | 0.00 | 0.00 | 0.00 | 41 | 1014.9 |
| 20260510215227 | 28 | 308 | 4.8 | 9.7 | 0.00 | 0.00 | 0.00 | 41 | 1014.9 |
| 20260510215151 | 28 | 313 | 3.2 | 9.7 | 0.00 | 0.00 | 0.00 | 41 | 1014.9 |
| 20260510215106 | 28 | 323 | 3.2 | 9.7 | 0.00 | 0.00 | 0.00 | 41 | 1014.9 |
| 20260510214820 | 28 | 360 | 4.8 | 9.7 | 0.00 | 0.00 | 0.00 | 41 | 1015.0 |
| 20260510214728 | 28 | 67 | 4.8 | 9.7 | 0.00 | 0.00 | 0.00 | 42 | 1015.0 |
| 20260510214616 | 28 | 355 | 1.6 | 8.0 | 0.00 | 0.00 | 0.00 | 41 | 1015.0 |
| 20260510214526 | 28 | 319 | 1.6 | 8.0 | 0.00 | 0.00 | 0.00 | 42 | 1015.0 |
| 20260510214414 | 28 | 323 | 3.2 | 8.0 | 0.00 | 0.00 | 0.00 | 45 | 1015.0 |
| 20260510214322 | 28 | 303 | 4.8 | 8.0 | 0.00 | 0.00 | 0.00 | 42 | 1015.0 |
| 20260510214229 | 28 | 14 | 4.8 | 9.7 | 0.00 | 0.00 | 0.00 | 42 | 1014.9 |
| 20260510214137 | 28 | 27 | 3.2 | 9.7 | 0.00 | 0.00 | 0.00 | 41 | 1015.0 |
| 20260510214023 | 28 | 13 | 1.6 | 9.7 | 0.00 | 0.00 | 0.00 | 41 | 1015.0 |
| 20260510213915 | 28 | 35 | 3.2 | 9.7 | 0.00 | 0.00 | 0.00 | 41 | 1015.0 |
| 20260510213822 | 28 | 22 | 3.2 | 9.7 | 0.00 | 0.00 | 0.00 | 41 | 1015.0 |
| 20260510213729 | 28 | 19 | 3.2 | 9.7 | 0.00 | 0.00 | 0.00 | 41 | 1015.1 |
| 20260510213617 | 28 | 360 | 4.8 | 9.7 | 0.00 | 0.00 | 0.00 | 41 | 1015.0 |
| 20260510213551 | 29 | 360 | 4.8 | 9.7 | 0.00 | 0.00 | 0.00 | 41 | 1015.0 |
| 20260510213326 | 29 | 47 | 4.8 | 9.7 | 0.00 | 0.00 | 0.00 | 40 | 1015.1 |
| 20260510213214 | 29 | 57 | 4.8 | 9.7 | 0.00 | 0.00 | 0.00 | 40 | 1015.2 |
| 20260510213121 | 29 | 44 | 4.8 | 9.7 | 0.00 | 0.00 | 0.00 | 42 | 1015.1 |
| 20260510213029 | 29 | 20 | 3.2 | 9.7 | 0.00 | 0.00 | 0.00 | 41 | 1015.1 |
| 20260510212917 | 29 | 65 | 3.2 | 9.7 | 0.00 | 0.00 | 0.00 | 41 | 1015.1 |
| 20260510212829 | 29 | 57 | 4.8 | 9.7 | 0.00 | 0.00 | 0.00 | 39 | 1015.1 |
| 20260510212717 | 29 | 106 | 6.4 | 9.7 | 0.00 | 0.00 | 0.00 | 41 | 1015.2 |
| 20260510212624 | 29 | 54 | 6.4 | 9.7 | 0.00 | 0.00 | 0.00 | 41 | 1015.2 |
| 20260510212532 | 29 | 56 | 6.4 | 9.7 | 0.00 | 0.00 | 0.00 | 41 | 1015.2 |
| 20260510212421 | 29 | 46 | 6.4 | 9.7 | 0.00 | 0.00 | 0.00 | 43 | 1015.1 |
| 20260510212312 | 29 | 34 | 4.8 | 9.7 | 0.00 | 0.00 | 0.00 | 41 | 1015.2 |
| 20260510212240 | 29 | 17 | 4.8 | 9.7 | 0.00 | 0.00 | 0.00 | 41 | 1015.2 |
| 20260510212208 | 29 | 80 | 3.2 | 9.7 | 0.00 | 0.00 | 0.00 | 41 | 1015.1 |
| 20260510212119 | 29 | 54 | 3.2 | 9.7 | 0.00 | 0.00 | 0.00 | 40 | 1015.2 |
| 20260510211831 | 29 | 14 | 4.8 | 9.7 | 0.00 | 0.00 | 0.00 | 41 | 1015.1 |
| 20260510211723 | 29 | 317 | 6.4 | 9.7 | 0.00 | 0.00 | 0.00 | 41 | 1015.0 |
| 20260510211629 | 29 | 336 | 6.4 | 9.7 | 0.00 | 0.00 | 0.00 | 41 | 1015.1 |
| 20260510211516 | 29 | 269 | 6.4 | 9.7 | 0.00 | 0.00 | 0.00 | 42 | 1015.1 |
| 20260510211425 | 29 | 300 | 4.8 | 9.7 | 0.00 | 0.00 | 0.00 | 42 | 1015.1 |
| 20260510211352 | 29 | 316 | 4.8 | 9.7 | 0.00 | 0.00 | 0.00 | 42 | 1015.2 |
| 20260510211217 | 29 | 355 | 6.4 | 9.7 | 0.00 | 0.00 | 0.00 | 42 | 1015.0 |
| 20260510211130 | 29 | 321 | 6.4 | 9.7 | 0.00 | 0.00 | 0.00 | 42 | 1015.0 |
| 20260510211017 | 29 | 330 | 6.4 | 12.9 | 0.00 | 0.00 | 0.00 | 41 | 1015.1 |
| 20260510210923 | 29 | 355 | 6.4 | 12.9 | 0.00 | 0.00 | 0.00 | 41 | 1015.1 |
| 20260510210831 | 29 | 346 | 4.8 | 12.9 | 0.00 | 0.00 | 0.00 | 42 | 1015.1 |
| 20260510210718 | 29 | 313 | 3.2 | 12.9 | 0.00 | 0.00 | 0.00 | 41 | 1015.0 |
| 20260510210624 | 29 | 293 | 3.2 | 12.9 | 0.00 | 0.00 | 0.00 | 41 | 1015.0 |
| 20260510210558 | 29 | 274 | 3.2 | 12.9 | 0.00 | 0.00 | 0.00 | 41 | 1015.1 |
| 20260510210313 | 28 | 321 | 6.4 | 12.9 | 0.00 | 0.00 | 0.00 | 41 | 1015.1 |
| 20260510210220 | 28 | 20 | 8.0 | 12.9 | 0.00 | 0.00 | 0.00 | 42 | 1015.1 |
| 20260510210128 | 28 | 325 | 6.4 | 12.9 | 0.00 | 0.00 | 0.00 | 40 | 1015.1 |
| 20260510210020 | 28 | 327 | 4.8 | 12.9 | 0.00 | 0.00 | 0.00 | 43 | 1014.9 |
| 20260510205927 | 28 | 311 | 4.8 | 12.9 | 0.00 | 0.00 | 0.00 | 42 | 1014.9 |
| 20260510205816 | 28 | 349 | 1.6 | 12.9 | 0.00 | 0.00 | 0.00 | 41 | 1015.0 |
| 20260510205743 | 28 | 250 | 1.6 | 12.9 | 0.00 | 0.00 | 0.00 | 40 | 1015.0 |
| 20260510205628 | 28 | 94 | 0.0 | 12.9 | 0.00 | 0.00 | 0.00 | 39 | 1015.0 |
| 20260510205516 | 28 | 296 | 1.6 | 12.9 | 0.00 | 0.00 | 0.00 | 40 | 1015.0 |
| 20260510205428 | 28 | 345 | 3.2 | 12.9 | 0.00 | 0.00 | 0.00 | 41 | 1015.0 |
| 20260510205315 | 28 | 345 | 4.8 | 12.9 | 0.00 | 0.00 | 0.00 | 42 | 1015.1 |
| 20260510205224 | 28 | 9 | 6.4 | 12.9 | 0.00 | 0.00 | 0.00 | 43 | 1015.1 |
| 20260510205131 | 28 | 9 | 6.4 | 12.9 | 0.00 | 0.00 | 0.00 | 42 | 1015.1 |
| 20260510205104 | 28 | 29 | 6.4 | 9.7 | 0.00 | 0.00 | 0.00 | 42 | 1015.1 |
| 20260510204817 | 28 | 342 | 6.4 | 9.7 | 0.00 | 0.00 | 0.00 | 43 | 1015.1 |
| 20260510204744 | 28 | 331 | 6.4 | 9.7 | 0.00 | 0.00 | 0.00 | 42 | 1015.1 |
| 20260510204631 | 28 | 346 | 4.8 | 9.7 | 0.00 | 0.00 | 0.00 | 42 | 1015.2 |
| 20260510204520 | 28 | 294 | 6.4 | 9.7 | 0.00 | 0.00 | 0.00 | 43 | 1015.1 |
| 20260510204427 | 28 | 336 | 6.4 | 9.7 | 0.00 | 0.00 | 0.00 | 43 | 1015.1 |
| 20260510204318 | 28 | 342 | 6.4 | 9.7 | 0.00 | 0.00 | 0.00 | 45 | 1015.2 |
| 20260510204226 | 28 | 15 | 6.4 | 9.7 | 0.00 | 0.00 | 0.00 | 44 | 1015.2 |
| 20260510204114 | 28 | 331 | 6.4 | 11.3 | 0.00 | 0.00 | 0.00 | 46 | 1015.2 |
| 20260510204021 | 28 | 327 | 6.4 | 9.7 | 0.00 | 0.00 | 0.00 | 45 | 1015.1 |
| 20260510203927 | 28 | 313 | 6.4 | 8.0 | 0.00 | 0.00 | 0.00 | 45 | 1015.1 |
| 20260510203819 | 28 | 5 | 4.8 | 8.0 | 0.00 | 0.00 | 0.00 | 44 | 1015.2 |
| 20260510203727 | 28 | 355 | 4.8 | 11.3 | 0.00 | 0.00 | 0.00 | 44 | 1015.2 |
| 20260510203614 | 28 | 317 | 3.2 | 11.3 | 0.00 | 0.00 | 0.00 | 44 | 1015.2 |
| 20260510203546 | 28 | 288 | 3.2 | 11.3 | 0.00 | 0.00 | 0.00 | 44 | 1015.2 |
| 20260510203319 | 28 | 272 | 4.8 | 11.3 | 0.00 | 0.00 | 0.00 | 43 | 1015.4 |
| 20260510203230 | 28 | 276 | 4.8 | 11.3 | 0.00 | 0.00 | 0.00 | 43 | 1015.4 |
| 20260510203117 | 28 | 300 | 4.8 | 11.3 | 0.00 | 0.00 | 0.00 | 44 | 1015.3 |
| 20260510203025 | 28 | 288 | 4.8 | 11.3 | 0.00 | 0.00 | 0.00 | 44 | 1015.3 |
| 20260510202932 | 28 | 321 | 6.4 | 11.3 | 0.00 | 0.00 | 0.00 | 45 | 1015.4 |
| 20260510202839 | 28 | 355 | 4.8 | 8.0 | 0.00 | 0.00 | 0.00 | 44 | 1015.4 |
| 20260510202725 | 28 | 326 | 4.8 | 8.0 | 0.00 | 0.00 | 0.00 | 45 | 1015.4 |
| 20260510202617 | 28 | 321 | 3.2 | 8.0 | 0.00 | 0.00 | 0.00 | 44 | 1015.4 |
| 20260510202544 | 28 | 355 | 4.8 | 8.0 | 0.00 | 0.00 | 0.00 | 44 | 1015.4 |
| 20260510202451 | 28 | 27 | 3.2 | 8.0 | 0.00 | 0.00 | 0.00 | 42 | 1015.5 |
| 20260510202318 | 28 | 30 | 3.2 | 11.3 | 0.00 | 0.00 | 0.00 | 43 | 1015.5 |
| 20260510202226 | 28 | 339 | 3.2 | 11.3 | 0.00 | 0.00 | 0.00 | 42 | 1015.5 |
| 20260510202114 | 28 | 165 | 3.2 | 11.3 | 0.00 | 0.00 | 0.00 | 43 | 1015.5 |
| 20260510202048 | 28 | 128 | 3.2 | 11.3 | 0.00 | 0.00 | 0.00 | 44 | 1015.5 |
| 20260510201841 | 28 | 64 | 3.2 | 11.3 | 0.00 | 0.00 | 0.00 | 45 | 1015.5 |
| 20260510201727 | 28 | 82 | 4.8 | 11.3 | 0.00 | 0.00 | 0.00 | 43 | 1015.5 |
| 20260510201615 | 28 | 65 | 6.4 | 11.3 | 0.00 | 0.00 | 0.00 | 42 | 1015.5 |
| 20260510201523 | 28 | 78 | 4.8 | 11.3 | 0.00 | 0.00 | 0.00 | 46 | 1015.5 |
| 20260510201413 | 28 | 132 | 3.2 | 9.7 | 0.00 | 0.00 | 0.00 | 44 | 1015.6 |
| 20260510201321 | 28 | 161 | 3.2 | 9.7 | 0.00 | 0.00 | 0.00 | 42 | 1015.6 |
| 20260510201229 | 28 | 22 | 4.8 | 9.7 | 0.00 | 0.00 | 0.00 | 43 | 1015.6 |
| 20260510201117 | 28 | 22 | 6.4 | 9.7 | 0.00 | 0.00 | 0.00 | 43 | 1015.8 |
| 20260510201044 | 28 | 73 | 6.4 | 11.3 | 0.00 | 0.00 | 0.00 | 44 | 1015.8 |
| 20260510200914 | 28 | 63 | 4.8 | 9.7 | 0.00 | 0.00 | 0.00 | 43 | 1015.7 |
| 20260510200843 | 28 | 123 | 3.2 | 9.7 | 0.00 | 0.00 | 0.00 | 45 | 1015.7 |
| 20260510200728 | 28 | 42 | 3.2 | 9.7 | 0.00 | 0.00 | 0.00 | 45 | 1015.7 |
| 20260510200636 | 28 | 82 | 3.2 | 9.7 | 0.00 | 0.00 | 0.00 | 44 | 1015.8 |
| 20260510200606 | 28 | 74 | 3.2 | 9.7 | 0.00 | 0.00 | 0.00 | 46 | 1015.7 |
| 20260510200324 | 28 | 340 | 1.6 | 8.0 | 0.00 | 0.00 | 0.00 | 43 | 1015.9 |
| 20260510200231 | 28 | 79 | 3.2 | 8.0 | 0.00 | 0.00 | 0.00 | 41 | 1015.9 |
| 20260510200118 | 28 | 51 | 3.2 | 8.0 | 0.00 | 0.00 | 0.00 | 41 | 1015.9 |
| 20260510200026 | 28 | 94 | 3.2 | 8.0 | 0.00 | 0.00 | 0.00 | 46 | 1015.9 |
| 20260510195912 | 28 | 40 | 4.8 | 8.0 | 0.00 | 0.00 | 0.00 | 45 | 1015.9 |
| 20260510195840 | 28 | 46 | 4.8 | 8.0 | 0.00 | 0.00 | 0.00 | 46 | 1016.0 |
| 20260510195730 | 28 | 63 | 3.2 | 8.0 | 0.00 | 0.00 | 0.00 | 45 | 1016.0 |
| 20260510195618 | 28 | 30 | 1.6 | 4.8 | 0.00 | 0.00 | 0.00 | 46 | 1015.9 |
| 20260510195547 | 28 | 221 | 3.2 | 4.8 | 0.00 | 0.00 | 0.00 | 46 | 1015.9 |
| 20260510195413 | 28 | 27 | 3.2 | 4.8 | 0.00 | 0.00 | 0.00 | 48 | 1015.9 |
| 20260510195321 | 28 | 9 | 3.2 | 4.8 | 0.00 | 0.00 | 0.00 | 48 | 1015.8 |
| 20260510195230 | 28 | 332 | 1.6 | 4.8 | 0.00 | 0.00 | 0.00 | 48 | 1015.8 |
| 20260510195141 | 28 | 162 | 1.6 | 3.2 | 0.00 | 0.00 | 0.00 | 49 | 1015.9 |
| 20260510195111 | 28 | 126 | 1.6 | 3.2 | 0.00 | 0.00 | 0.00 | 49 | 1015.8 |
| 20260510194823 | 28 | 145 | 0.0 | 4.8 | 0.00 | 0.00 | 0.00 | 50 | 1015.8 |
| 20260510194750 | 28 | 145 | 0.0 | 4.8 | 0.00 | 0.00 | 0.00 | 48 | 1015.9 |
| 20260510194636 | 28 | 145 | 1.6 | 4.8 | 0.00 | 0.00 | 0.00 | 47 | 1015.9 |
| 20260510194521 | 28 | 145 | 1.6 | 4.8 | 0.00 | 0.00 | 0.00 | 47 | 1015.9 |
| 20260510194413 | 28 | 121 | 1.6 | 4.8 | 0.00 | 0.00 | 0.00 | 47 | 1015.8 |
| 20260510194341 | 28 | 180 | 1.6 | 4.8 | 0.00 | 0.00 | 0.00 | 47 | 1015.9 |
| 20260510194227 | 28 | 179 | 1.6 | 4.8 | 0.00 | 0.00 | 0.00 | 49 | 1015.9 |
| 20260510194113 | 28 | 119 | 1.6 | 4.8 | 0.00 | 0.00 | 0.00 | 48 | 1015.9 |
| 20260510194021 | 28 | 86 | 3.2 | 4.8 | 0.00 | 0.00 | 0.00 | 55 | 1015.9 |
| 20260510193912 | 28 | 61 | 3.2 | 12.9 | 0.00 | 0.00 | 0.00 | 55 | 1015.9 |
| 20260510193820 | 28 | 117 | 3.2 | 12.9 | 0.00 | 0.00 | 0.00 | 51 | 1015.9 |
| 20260510193728 | 28 | 337 | 3.2 | 12.9 | 0.00 | 0.00 | 0.00 | 52 | 1015.9 |
| 20260510193614 | 28 | 279 | 3.2 | 12.9 | 0.00 | 0.00 | 0.00 | 50 | 1015.9 |
| 20260510193546 | 28 | 268 | 3.2 | 12.9 | 0.00 | 0.00 | 0.00 | 50 | 1015.9 |
| 20260510193324 | 28 | 280 | 3.2 | 12.9 | 0.00 | 0.00 | 0.00 | 51 | 1015.8 |
| 20260510193232 | 28 | 311 | 4.8 | 12.9 | 0.00 | 0.00 | 0.00 | 53 | 1016.0 |
| 20260510193119 | 28 | 360 | 6.4 | 12.9 | 0.00 | 0.00 | 0.00 | 51 | 1016.0 |
| 20260510193027 | 28 | 319 | 8.0 | 12.9 | 0.00 | 0.00 | 0.00 | 51 | 1016.0 |
| 20260510192936 | 28 | 324 | 6.4 | 12.9 | 0.00 | 0.00 | 0.00 | 51 | 1016.0 |
| 20260510192822 | 28 | 340 | 6.4 | 12.9 | 0.00 | 0.00 | 0.00 | 51 | 1016.0 |
| 20260510192712 | 28 | 338 | 4.8 | 12.9 | 0.00 | 0.00 | 0.00 | 51 | 1016.0 |
| 20260510192640 | 28 | 298 | 3.2 | 12.9 | 0.00 | 0.00 | 0.00 | 53 | 1016.0 |
| 20260510192526 | 28 | 294 | 3.2 | 12.9 | 0.00 | 0.00 | 0.00 | 54 | 1016.0 |
| 20260510192413 | 28 | 234 | 6.4 | 12.9 | 0.00 | 0.00 | 0.00 | 54 | 1015.9 |
| 20260510192321 | 28 | 253 | 6.4 | 12.9 | 0.00 | 0.00 | 0.00 | 54 | 1016.0 |
| 20260510192227 | 28 | 292 | 6.4 | 12.9 | 0.00 | 0.00 | 0.00 | 55 | 1016.0 |
| 20260510192118 | 27 | 277 | 6.4 | 12.9 | 0.00 | 0.00 | 0.00 | 54 | 1016.0 |
| 20260510192049 | 27 | 319 | 6.4 | 12.9 | 0.00 | 0.00 | 0.00 | 55 | 1016.0 |
| 20260510191842 | 27 | 309 | 6.4 | 12.9 | 0.00 | 0.00 | 0.00 | 55 | 1015.9 |
| 20260510191728 | 27 | 347 | 4.8 | 11.3 | 0.00 | 0.00 | 0.00 | 56 | 1015.9 |
| 20260510191620 | 27 | 289 | 4.8 | 11.3 | 0.00 | 0.00 | 0.00 | 58 | 1015.9 |
| 20260510191528 | 27 | 273 | 4.8 | 11.3 | 0.00 | 0.00 | 0.00 | 56 | 1015.9 |
| 20260510191415 | 27 | 323 | 4.8 | 11.3 | 0.00 | 0.00 | 0.00 | 55 | 1016.0 |
| 20260510191323 | 27 | 311 | 4.8 | 11.3 | 0.00 | 0.00 | 0.00 | 55 | 1016.0 |
| 20260510191231 | 27 | 317 | 4.8 | 11.3 | 0.00 | 0.00 | 0.00 | 56 | 1016.0 |
| 20260510191138 | 27 | 271 | 4.8 | 11.3 | 0.00 | 0.00 | 0.00 | 56 | 1016.0 |
| 20260510191029 | 27 | 280 | 4.8 | 9.7 | 0.00 | 0.00 | 0.00 | 56 | 1016.0 |
| 20260510190917 | 27 | 181 | 4.8 | 9.7 | 0.00 | 0.00 | 0.00 | 56 | 1016.0 |
| 20260510190825 | 27 | 188 | 3.2 | 9.7 | 0.00 | 0.00 | 0.00 | 55 | 1016.0 |
| 20260510190713 | 27 | 200 | 1.6 | 6.4 | 0.00 | 0.00 | 0.00 | 53 | 1016.1 |
| 20260510190621 | 27 | 199 | 1.6 | 6.4 | 0.00 | 0.00 | 0.00 | 53 | 1016.0 |
| 20260510190554 | 27 | 189 | 3.2 | 6.4 | 0.00 | 0.00 | 0.00 | 53 | 1016.0 |
| 20260510190348 | 27 | 46 | 3.2 | 6.4 | 0.00 | 0.00 | 0.00 | 56 | 1016.1 |
| 20260510190215 | 26 | 34 | 3.2 | 9.7 | 0.00 | 0.00 | 0.00 | 55 | 1016.0 |
| 20260510190122 | 26 | 57 | 3.2 | 9.7 | 0.00 | 0.00 | 0.00 | 55 | 1016.0 |
| 20260510190030 | 26 | 355 | 3.2 | 9.7 | 0.00 | 0.00 | 0.00 | 55 | 1016.1 |
| 20260510185922 | 26 | 5 | 3.2 | 9.7 | 0.00 | 0.00 | 0.00 | 56 | 1016.2 |
| 20260510185830 | 26 | 309 | 3.2 | 9.7 | 0.00 | 0.00 | 0.00 | 56 | 1016.1 |
| 20260510185738 | 26 | 300 | 3.2 | 9.7 | 0.00 | 0.00 | 0.00 | 59 | 1016.2 |
| 20260510185624 | 26 | 248 | 4.8 | 9.7 | 0.00 | 0.00 | 0.00 | 57 | 1016.2 |
| 20260510185552 | 26 | 253 | 4.8 | 9.7 | 0.00 | 0.00 | 0.00 | 57 | 1016.3 |
| 20260510185438 | 26 | 189 | 6.4 | 9.7 | 0.00 | 0.00 | 0.00 | 57 | 1016.3 |
| 20260510185324 | 26 | 198 | 4.8 | 11.3 | 0.00 | 0.00 | 0.00 | 57 | 1016.3 |
| 20260510185235 | 26 | 284 | 4.8 | 11.3 | 0.00 | 0.00 | 0.00 | 60 | 1016.4 |
| 20260510185121 | 26 | 260 | 6.4 | 14.5 | 0.00 | 0.00 | 0.00 | 58 | 1016.3 |
| 20260510185052 | 26 | 276 | 6.4 | 14.5 | 0.00 | 0.00 | 0.00 | 58 | 1016.3 |
| 20260510184824 | 26 | 277 | 6.4 | 14.5 | 0.00 | 0.00 | 0.00 | 57 | 1016.3 |
| 20260510184751 | 26 | 282 | 6.4 | 14.5 | 0.00 | 0.00 | 0.00 | 57 | 1016.4 |
| 20260510184621 | 26 | 296 | 4.8 | 14.5 | 0.00 | 0.00 | 0.00 | 57 | 1016.4 |
| 20260510184530 | 26 | 281 | 6.4 | 14.5 | 0.00 | 0.00 | 0.00 | 57 | 1016.4 |
| 20260510184417 | 26 | 302 | 6.4 | 14.5 | 0.00 | 0.00 | 0.00 | 58 | 1016.4 |
| 20260510184326 | 26 | 280 | 4.8 | 14.5 | 0.00 | 0.00 | 0.00 | 58 | 1016.4 |
| 20260510184212 | 26 | 273 | 1.6 | 9.7 | 0.00 | 0.00 | 0.00 | 58 | 1016.4 |
| 20260510184119 | 26 | 261 | 1.6 | 9.7 | 0.00 | 0.00 | 0.00 | 57 | 1016.4 |
| 20260510184030 | 26 | 216 | 3.2 | 11.3 | 0.00 | 0.00 | 0.00 | 58 | 1016.4 |
| 20260510183917 | 26 | 167 | 3.2 | 11.3 | 0.00 | 0.00 | 0.00 | 58 | 1016.3 |
| 20260510183825 | 26 | 336 | 3.2 | 11.3 | 0.00 | 0.00 | 0.00 | 57 | 1016.3 |
| 20260510183731 | 26 | 78 | 3.2 | 11.3 | 0.00 | 0.00 | 0.00 | 57 | 1016.4 |
| 20260510183618 | 26 | 140 | 4.8 | 11.3 | 0.00 | 0.00 | 0.00 | 57 | 1016.4 |
| 20260510183552 | 26 | 107 | 6.4 | 11.3 | 0.00 | 0.00 | 0.00 | 58 | 1016.4 |
| 20260510183347 | 26 | 131 | 8.0 | 11.3 | 0.00 | 0.00 | 0.00 | 58 | 1016.3 |
| 20260510183252 | 26 | 188 | 6.4 | 11.3 | 0.00 | 0.00 | 0.00 | 57 | 1016.5 |
| 20260510183138 | 26 | 184 | 4.8 | 12.9 | 0.00 | 0.00 | 0.00 | 60 | 1016.5 |
| 20260510183024 | 26 | 186 | 3.2 | 12.9 | 0.00 | 0.00 | 0.00 | 60 | 1016.5 |
| 20260510182931 | 26 | 156 | 3.2 | 12.9 | 0.00 | 0.00 | 0.00 | 59 | 1016.4 |
| 20260510182822 | 26 | 116 | 4.8 | 12.9 | 0.00 | 0.00 | 0.00 | 58 | 1016.4 |
| 20260510182729 | 26 | 248 | 4.8 | 12.9 | 0.00 | 0.00 | 0.00 | 57 | 1016.5 |
| 20260510182616 | 26 | 244 | 3.2 | 12.9 | 0.00 | 0.00 | 0.00 | 57 | 1016.4 |
| 20260510182523 | 26 | 314 | 6.4 | 12.9 | 0.00 | 0.00 | 0.00 | 57 | 1016.4 |
| 20260510182432 | 26 | 327 | 8.0 | 12.9 | 0.00 | 0.00 | 0.00 | 57 | 1016.5 |
| 20260510182340 | 26 | 273 | 8.0 | 12.9 | 0.00 | 0.00 | 0.00 | 58 | 1016.4 |
| 20260510182243 | 26 | 321 | 4.8 | 14.5 | 0.00 | 0.00 | 0.00 | 59 | 1016.4 |
| 20260510182153 | 26 | 294 | 4.8 | 14.5 | 0.00 | 0.00 | 0.00 | 62 | 1016.5 |
| 20260510182103 | 26 | 290 | 4.8 | 14.5 | 0.00 | 0.00 | 0.00 | 61 | 1016.5 |
| 20260510181817 | 26 | 297 | 6.4 | 14.5 | 0.00 | 0.00 | 0.00 | 61 | 1016.5 |
| 20260510181726 | 26 | 267 | 8.0 | 14.5 | 0.00 | 0.00 | 0.00 | 61 | 1016.5 |
| 20260510181618 | 26 | 248 | 8.0 | 14.5 | 0.00 | 0.00 | 0.00 | 61 | 1016.5 |
| 20260510181525 | 25 | 321 | 8.0 | 14.5 | 0.00 | 0.00 | 0.00 | 60 | 1016.5 |
| 20260510181412 | 25 | 257 | 6.4 | 14.5 | 0.00 | 0.00 | 0.00 | 59 | 1016.5 |
| 20260510181318 | 25 | 291 | 6.4 | 14.5 | 0.00 | 0.00 | 0.00 | 59 | 1016.5 |
| 20260510181112 | 26 | 341 | 6.4 | 14.5 | 0.00 | 0.00 | 0.00 | 58 | 1016.5 |
| 20260510181043 | 26 | 327 | 6.4 | 14.5 | 0.00 | 0.00 | 0.00 | 58 | 1016.5 |
| 20260510180930 | 26 | 340 | 6.4 | 12.9 | 0.00 | 0.00 | 0.00 | 58 | 1016.5 |
| 20260510180745 | 26 | 304 | 6.4 | 11.3 | 0.00 | 0.00 | 0.00 | 58 | 1016.6 |
| 20260510180630 | 26 | 328 | 6.4 | 11.3 | 0.00 | 0.00 | 0.00 | 58 | 1016.6 |
| 20260510180606 | 26 | 344 | 4.8 | 11.3 | 0.00 | 0.00 | 0.00 | 58 | 1016.6 |
| 20260510180319 | 26 | 325 | 4.8 | 11.3 | 0.00 | 0.00 | 0.00 | 58 | 1016.7 |
| 20260510180227 | 26 | 328 | 4.8 | 14.5 | 0.00 | 0.00 | 0.00 | 58 | 1016.7 |
| 20260510180115 | 26 | 294 | 6.4 | 14.5 | 0.00 | 0.00 | 0.00 | 59 | 1016.7 |
| 20260510180022 | 26 | 239 | 6.4 | 14.5 | 0.00 | 0.00 | 0.00 | 58 | 1016.7 |
| 20260510175913 | 26 | 304 | 4.8 | 14.5 | 0.00 | 0.00 | 0.00 | 58 | 1016.7 |
| 20260510175822 | 26 | 260 | 4.8 | 14.5 | 0.00 | 0.00 | 0.00 | 58 | 1016.7 |
| 20260510175728 | 26 | 299 | 4.8 | 14.5 | 0.00 | 0.00 | 0.00 | 57 | 1016.7 |
| 20260510175637 | 26 | 284 | 6.4 | 14.5 | 0.00 | 0.00 | 0.00 | 57 | 1016.7 |
| 20260510175543 | 26 | 294 | 8.0 | 14.5 | 0.00 | 0.00 | 0.00 | 58 | 1016.7 |
| 20260510175428 | 26 | 347 | 6.4 | 14.5 | 0.00 | 0.00 | 0.00 | 58 | 1016.8 |
| 20260510175317 | 26 | 331 | 4.8 | 14.5 | 0.00 | 0.00 | 0.00 | 58 | 1016.7 |
| 20260510175249 | 26 | 296 | 6.4 | 14.5 | 0.00 | 0.00 | 0.00 | 57 | 1016.7 |
| 20260510175217 | 26 | 257 | 6.4 | 14.5 | 0.00 | 0.00 | 0.00 | 58 | 1016.8 |
| 20260510175127 | 26 | 203 | 8.0 | 14.5 | 0.00 | 0.00 | 0.00 | 58 | 1016.7 |
| 20260510174820 | 26 | 181 | 9.7 | 14.5 | 0.00 | 0.00 | 0.00 | 57 | 1016.8 |
| 20260510174746 | 26 | 185 | 6.4 | 14.5 | 0.00 | 0.00 | 0.00 | 58 | 1016.8 |
| 20260510174612 | 26 | 215 | 4.8 | 12.9 | 0.00 | 0.00 | 0.00 | 60 | 1016.8 |
| 20260510174523 | 26 | 233 | 3.2 | 12.9 | 0.00 | 0.00 | 0.00 | 61 | 1016.8 |
| 20260510174431 | 26 | 93 | 4.8 | 12.9 | 0.00 | 0.00 | 0.00 | 59 | 1016.7 |
| 20260510174317 | 26 | 263 | 4.8 | 12.9 | 0.00 | 0.00 | 0.00 | 59 | 1016.8 |
| 20260510174224 | 26 | 229 | 6.4 | 12.9 | 0.00 | 0.00 | 0.00 | 59 | 1016.8 |
| 20260510174152 | 26 | 299 | 4.8 | 11.3 | 0.00 | 0.00 | 0.00 | 61 | 1016.7 |
| 20260510174017 | 26 | 263 | 3.2 | 9.7 | 0.00 | 0.00 | 0.00 | 62 | 1016.8 |
| 20260510173949 | 26 | 288 | 1.6 | 6.4 | 0.00 | 0.00 | 0.00 | 60 | 1016.8 |
| 20260510173816 | 26 | 195 | 0.0 | 6.4 | 0.00 | 0.00 | 0.00 | 58 | 1016.8 |
| 20260510173725 | 26 | 34 | 1.6 | 6.4 | 0.00 | 0.00 | 0.00 | 61 | 1016.8 |
| 20260510173651 | 26 | 34 | 3.2 | 6.4 | 0.00 | 0.00 | 0.00 | 61 | 1016.8 |
| 20260510173623 | 26 | 34 | 4.8 | 6.4 | 0.00 | 0.00 | 0.00 | 60 | 1016.7 |
| 20260510173340 | 25 | 28 | 4.8 | 9.7 | 0.00 | 0.00 | 0.00 | 60 | 1016.9 |
| 20260510173228 | 25 | 5 | 3.2 | 9.7 | 0.00 | 0.00 | 0.00 | 61 | 1016.9 |
| 20260510173115 | 25 | 10 | 3.2 | 9.7 | 0.00 | 0.00 | 0.00 | 61 | 1016.8 |
| 20260510173022 | 25 | 302 | 3.2 | 9.7 | 0.00 | 0.00 | 0.00 | 60 | 1016.8 |
| 20260510172950 | 25 | 302 | 3.2 | 9.7 | 0.00 | 0.00 | 0.00 | 64 | 1016.8 |
| 20260510172727 | 25 | 285 | 1.6 | 9.7 | 0.00 | 0.00 | 0.00 | 62 | 1016.9 |
| 20260510172520 | 25 | 284 | 4.8 | 9.7 | 0.00 | 0.00 | 0.00 | 63 | 1016.8 |
| 20260510172426 | 25 | 319 | 4.8 | 11.3 | 0.00 | 0.00 | 0.00 | 63 | 1016.8 |
| 20260510172314 | 25 | 292 | 3.2 | 11.3 | 0.00 | 0.00 | 0.00 | 62 | 1016.9 |
| 20260510172223 | 25 | 295 | 1.6 | 11.3 | 0.00 | 0.00 | 0.00 | 62 | 1016.9 |
| 20260510172115 | 25 | 310 | 1.6 | 11.3 | 0.00 | 0.00 | 0.00 | 63 | 1016.9 |
| 20260510172046 | 25 | 322 | 1.6 | 11.3 | 0.00 | 0.00 | 0.00 | 61 | 1016.9 |
| 20260510171819 | 25 | 296 | 3.2 | 11.3 | 0.00 | 0.00 | 0.00 | 62 | 1017.0 |
| 20260510171725 | 25 | 202 | 3.2 | 11.3 | 0.00 | 0.00 | 0.00 | 62 | 1017.0 |
| 20260510171617 | 25 | 276 | 4.8 | 11.3 | 0.00 | 0.00 | 0.00 | 65 | 1016.9 |
| 20260510171524 | 25 | 290 | 4.8 | 8.0 | 0.00 | 0.00 | 0.00 | 66 | 1016.9 |
| 20260510171432 | 25 | 243 | 4.8 | 8.0 | 0.00 | 0.00 | 0.00 | 66 | 1016.9 |
| 20260510171318 | 25 | 249 | 3.2 | 8.0 | 0.00 | 0.00 | 0.00 | 64 | 1016.9 |
| 20260510171225 | 25 | 286 | 1.6 | 6.4 | 0.00 | 0.00 | 0.00 | 64 | 1016.9 |
| 20260510171151 | 25 | 276 | 3.2 | 6.4 | 0.00 | 0.00 | 0.00 | 64 | 1016.9 |
| 20260510171023 | 25 | 326 | 1.6 | 6.4 | 0.00 | 0.00 | 0.00 | 63 | 1016.8 |
| 20260510170930 | 25 | 321 | 1.6 | 6.4 | 0.00 | 0.00 | 0.00 | 63 | 1016.9 |
| 20260510170817 | 25 | 5 | 3.2 | 6.4 | 0.00 | 0.00 | 0.00 | 63 | 1016.8 |
| 20260510170726 | 25 | 12 | 3.2 | 9.7 | 0.00 | 0.00 | 0.00 | 63 | 1016.8 |
| 20260510170633 | 25 | 355 | 3.2 | 9.7 | 0.00 | 0.00 | 0.00 | 65 | 1016.9 |
| 20260510170608 | 25 | 342 | 3.2 | 11.3 | 0.00 | 0.00 | 0.00 | 64 | 1016.9 |
| 20260510170321 | 25 | 10 | 1.6 | 11.3 | 0.00 | 0.00 | 0.00 | 65 | 1016.8 |
| 20260510170228 | 25 | 342 | 1.6 | 11.3 | 0.00 | 0.00 | 0.00 | 65 | 1016.8 |
| 20260510170117 | 25 | 298 | 3.2 | 11.3 | 0.00 | 0.00 | 0.00 | 65 | 1016.9 |
| 20260510170024 | 25 | 299 | 4.8 | 11.3 | 0.00 | 0.00 | 0.00 | 64 | 1016.9 |
| 20260510165914 | 25 | 284 | 6.4 | 11.3 | 0.00 | 0.00 | 0.00 | 64 | 1016.9 |
| 20260510165822 | 25 | 296 | 6.4 | 11.3 | 0.00 | 0.00 | 0.00 | 65 | 1016.9 |
| 20260510165730 | 25 | 275 | 6.4 | 11.3 | 0.00 | 0.00 | 0.00 | 65 | 1016.9 |
| 20260510165616 | 25 | 267 | 4.8 | 9.7 | 0.00 | 0.00 | 0.00 | 66 | 1016.9 |
| 20260510165523 | 25 | 283 | 4.8 | 9.7 | 0.00 | 0.00 | 0.00 | 68 | 1016.9 |
| 20260510165431 | 25 | 280 | 4.8 | 9.7 | 0.00 | 0.00 | 0.00 | 68 | 1016.9 |
| 20260510165322 | 25 | 276 | 3.2 | 9.7 | 0.00 | 0.00 | 0.00 | 68 | 1016.9 |
| 20260510165251 | 25 | 261 | 3.2 | 9.7 | 0.00 | 0.00 | 0.00 | 68 | 1016.9 |
| 20260510165117 | 25 | 250 | 3.2 | 12.9 | 0.00 | 0.00 | 0.00 | 68 | 1016.9 |
| 20260510165047 | 25 | 272 | 4.8 | 12.9 | 0.00 | 0.00 | 0.00 | 69 | 1016.9 |
| 20260510164820 | 25 | 287 | 4.8 | 12.9 | 0.00 | 0.00 | 0.00 | 69 | 1016.9 |
| 20260510164712 | 25 | 306 | 3.2 | 12.9 | 0.00 | 0.00 | 0.00 | 69 | 1016.9 |
| 20260510164619 | 25 | 325 | 3.2 | 12.9 | 0.00 | 0.00 | 0.00 | 69 | 1017.0 |
| 20260510164525 | 25 | 290 | 4.8 | 12.9 | 0.00 | 0.00 | 0.00 | 72 | 1017.0 |
| 20260510164413 | 25 | 187 | 6.4 | 12.9 | 0.00 | 0.00 | 0.00 | 71 | 1017.1 |
| 20260510164320 | 25 | 173 | 4.8 | 12.9 | 0.00 | 0.00 | 0.00 | 71 | 1017.0 |
| 20260510164226 | 25 | 194 | 3.2 | 12.9 | 0.00 | 0.00 | 0.00 | 72 | 1017.0 |
| 20260510164118 | 25 | 193 | 1.6 | 8.0 | 0.00 | 0.00 | 0.00 | 73 | 1017.1 |
| 20260510164026 | 25 | 295 | 3.2 | 8.0 | 0.00 | 0.00 | 0.00 | 75 | 1017.1 |
| 20260510163915 | 25 | 116 | 4.8 | 8.0 | 0.00 | 0.00 | 0.00 | 73 | 1017.1 |
| 20260510163822 | 25 | 128 | 4.8 | 8.0 | 0.00 | 0.00 | 0.00 | 72 | 1017.1 |
| 20260510163727 | 25 | 114 | 4.8 | 8.0 | 0.00 | 0.00 | 0.00 | 72 | 1017.0 |
| 20260510163636 | 25 | 138 | 4.8 | 8.0 | 0.00 | 0.00 | 0.00 | 73 | 1017.1 |
| 20260510163611 | 24 | 193 | 3.2 | 12.9 | 0.00 | 0.00 | 0.00 | 74 | 1017.1 |
| 20260510163324 | 24 | 49 | 1.6 | 12.9 | 0.00 | 0.00 | 0.00 | 74 | 1017.1 |
| 20260510163230 | 24 | 71 | 0.0 | 12.9 | 0.00 | 0.00 | 0.00 | 75 | 1017.1 |
| 20260510163117 | 24 | 39 | 0.0 | 12.9 | 0.00 | 0.00 | 0.00 | 74 | 1017.1 |
| 20260510163029 | 24 | 155 | 1.6 | 12.9 | 0.00 | 0.00 | 0.00 | 75 | 1017.1 |
| 20260510162918 | 24 | 156 | 4.8 | 12.9 | 0.00 | 0.00 | 0.00 | 75 | 1017.2 |
| 20260510162731 | 24 | 215 | 6.4 | 12.9 | 0.00 | 0.00 | 0.00 | 73 | 1017.2 |
| 20260510162619 | 24 | 218 | 4.8 | 12.9 | 0.00 | 0.00 | 0.00 | 74 | 1017.2 |
| 20260510162528 | 24 | 190 | 1.6 | 6.4 | 0.00 | 0.00 | 0.00 | 75 | 1017.2 |
| 20260510162419 | 24 | 147 | 1.6 | 6.4 | 0.00 | 0.00 | 0.00 | 75 | 1017.2 |
| 20260510162326 | 23 | 252 | 0.0 | 6.4 | 0.00 | 0.00 | 0.00 | 76 | 1017.2 |
| 20260510162214 | 23 | 273 | 1.6 | 6.4 | 0.00 | 0.00 | 0.00 | 75 | 1017.2 |
| 20260510162122 | 23 | 273 | 1.6 | 11.3 | 0.00 | 0.00 | 0.00 | 74 | 1017.2 |
| 20260510162056 | 23 | 239 | 1.6 | 11.3 | 0.00 | 0.00 | 0.00 | 75 | 1017.2 |
| 20260510161829 | 23 | 250 | 0.0 | 11.3 | 0.00 | 0.00 | 0.00 | 76 | 1017.2 |
| 20260510161737 | 23 | 339 | 1.6 | 11.3 | 0.00 | 0.00 | 0.00 | 77 | 1017.0 |
| 20260510161622 | 23 | 321 | 1.6 | 11.3 | 0.00 | 0.00 | 0.00 | 78 | 1017.0 |
| 20260510161530 | 23 | 321 | 3.2 | 11.3 | 0.00 | 0.00 | 0.00 | 77 | 1017.1 |
| 20260510161417 | 23 | 310 | 3.2 | 11.3 | 0.00 | 0.00 | 0.00 | 78 | 1017.1 |
| 20260510161329 | 23 | 279 | 3.2 | 11.3 | 0.00 | 0.00 | 0.00 | 77 | 1017.1 |
| 20260510161216 | 23 | 270 | 6.4 | 11.3 | 0.00 | 0.00 | 0.00 | 77 | 1017.1 |
| 20260510161125 | 23 | 250 | 6.4 | 11.3 | 0.00 | 0.00 | 0.00 | 77 | 1017.1 |
| 20260510161032 | 23 | 215 | 6.4 | 12.9 | 0.00 | 0.00 | 0.00 | 77 | 1017.0 |
| 20260510160920 | 23 | 219 | 4.8 | 12.9 | 0.00 | 0.00 | 0.00 | 78 | 1017.1 |
| 20260510160830 | 23 | 242 | 4.8 | 12.9 | 0.00 | 0.00 | 0.00 | 78 | 1017.1 |
| 20260510160717 | 23 | 165 | 4.8 | 11.3 | 0.00 | 0.00 | 0.00 | 79 | 1017.2 |
| 20260510160644 | 23 | 157 | 4.8 | 11.3 | 0.00 | 0.00 | 0.00 | 78 | 1017.2 |
| 20260510160554 | 23 | 163 | 4.8 | 11.3 | 0.00 | 0.00 | 0.00 | 78 | 1017.2 |
| 20260510160328 | 23 | 319 | 3.2 | 11.3 | 0.00 | 0.00 | 0.00 | 78 | 1017.2 |
| 20260510160221 | 23 | 306 | 4.8 | 11.3 | 0.00 | 0.00 | 0.00 | 78 | 1017.2 |
| 20260510160126 | 23 | 279 | 4.8 | 11.3 | 0.00 | 0.00 | 0.00 | 78 | 1017.2 |
| 20260510160014 | 23 | 250 | 4.8 | 9.7 | 0.00 | 0.00 | 0.00 | 79 | 1017.2 |
| 20260510155923 | 23 | 186 | 4.8 | 11.3 | 0.00 | 0.00 | 0.00 | 80 | 1017.2 |
| 20260510155830 | 23 | 187 | 4.8 | 12.9 | 0.00 | 0.00 | 0.00 | 80 | 1017.1 |
| 20260510155718 | 23 | 118 | 3.2 | 14.5 | 0.00 | 0.00 | 0.00 | 80 | 1017.1 |
| 20260510155630 | 23 | 109 | 3.2 | 14.5 | 0.00 | 0.00 | 0.00 | 79 | 1017.1 |
| 20260510155538 | 23 | 317 | 4.8 | 14.5 | 0.00 | 0.00 | 0.00 | 79 | 1017.0 |
| 20260510155331 | 23 | 252 | 6.4 | 14.5 | 0.00 | 0.00 | 0.00 | 79 | 1017.1 |
| 20260510155239 | 23 | 180 | 8.0 | 14.5 | 0.00 | 0.00 | 0.00 | 78 | 1016.9 |
| 20260510155205 | 23 | 189 | 8.0 | 14.5 | 0.00 | 0.00 | 0.00 | 79 | 1017.0 |
| 20260510155119 | 23 | 233 | 8.0 | 14.5 | 0.00 | 0.00 | 0.00 | 79 | 1017.0 |
| 20260510154812 | 23 | 130 | 6.4 | 9.7 | 0.00 | 0.00 | 0.00 | 79 | 1016.9 |
| 20260510154720 | 23 | 113 | 6.4 | 9.7 | 0.00 | 0.00 | 0.00 | 79 | 1016.9 |
| 20260510154626 | 23 | 169 | 4.8 | 9.7 | 0.00 | 0.00 | 0.00 | 79 | 1016.9 |
| 20260510154513 | 23 | 178 | 3.2 | 9.7 | 0.00 | 0.00 | 0.00 | 79 | 1017.0 |
| 20260510154425 | 23 | 269 | 4.8 | 9.7 | 0.00 | 0.00 | 0.00 | 79 | 1017.0 |
| 20260510154312 | 23 | 275 | 4.8 | 9.7 | 0.00 | 0.00 | 0.00 | 79 | 1016.9 |
| 20260510154219 | 23 | 264 | 4.8 | 9.7 | 0.00 | 0.00 | 0.00 | 80 | 1016.8 |
| 20260510154126 | 23 | 259 | 3.2 | 6.4 | 0.00 | 0.00 | 0.00 | 79 | 1016.8 |
| 20260510154013 | 23 | 199 | 1.6 | 6.4 | 0.00 | 0.00 | 0.00 | 79 | 1016.9 |
| 20260510153925 | 23 | 123 | 1.6 | 6.4 | 0.00 | 0.00 | 0.00 | 79 | 1016.9 |
| 20260510153813 | 23 | 212 | 1.6 | 6.4 | 0.00 | 0.00 | 0.00 | 79 | 1016.9 |
| 20260510153740 | 22 | 182 | 1.6 | 6.4 | 0.00 | 0.00 | 0.00 | 80 | 1016.9 |
| 20260510153646 | 22 | 203 | 3.2 | 6.4 | 0.00 | 0.00 | 0.00 | 80 | 1016.9 |
| 20260510153556 | 22 | 203 | 3.2 | 6.4 | 0.00 | 0.00 | 0.00 | 80 | 1016.9 |
| 20260510153314 | 22 | 282 | 3.2 | 6.4 | 0.00 | 0.00 | 0.00 | 80 | 1016.9 |
| 20260510153221 | 22 | 171 | 1.6 | 4.8 | 0.00 | 0.00 | 0.00 | 80 | 1016.9 |
| 20260510153129 | 22 | 169 | 1.6 | 4.8 | 0.00 | 0.00 | 0.00 | 80 | 1016.9 |
| 20260510153017 | 22 | 171 | 0.0 | 4.8 | 0.00 | 0.00 | 0.00 | 81 | 1016.9 |
| 20260510152924 | 22 | 306 | 0.0 | 11.3 | 0.00 | 0.00 | 0.00 | 81 | 1016.9 |
| 20260510152852 | 22 | 306 | 1.6 | 11.3 | 0.00 | 0.00 | 0.00 | 81 | 1017.0 |
| 20260510152721 | 22 | 306 | 3.2 | 11.3 | 0.00 | 0.00 | 0.00 | 81 | 1016.9 |
| 20260510152629 | 22 | 306 | 1.6 | 11.3 | 0.00 | 0.00 | 0.00 | 82 | 1016.9 |
| 20260510152536 | 22 | 266 | 1.6 | 11.3 | 0.00 | 0.00 | 0.00 | 83 | 1016.9 |
| 20260510152423 | 22 | 148 | 1.6 | 11.3 | 0.00 | 0.00 | 0.00 | 82 | 1016.9 |
| 20260510152312 | 22 | 143 | 1.6 | 11.3 | 0.00 | 0.00 | 0.00 | 82 | 1016.8 |
| 20260510152221 | 22 | 67 | 3.2 | 11.3 | 0.00 | 0.00 | 0.00 | 82 | 1016.8 |
| 20260510152149 | 22 | 136 | 1.6 | 11.3 | 0.00 | 0.00 | 0.00 | 82 | 1017.0 |
| 20260510152122 | 22 | 158 | 1.6 | 6.4 | 0.00 | 0.00 | 0.00 | 83 | 1016.8 |
| 20260510151815 | 22 | 84 | 1.6 | 6.4 | 0.00 | 0.00 | 0.00 | 83 | 1016.8 |
| 20260510151721 | 21 | 89 | 3.2 | 12.9 | 0.00 | 0.00 | 0.00 | 84 | 1016.8 |
| 20260510151647 | 21 | 83 | 4.8 | 12.9 | 0.00 | 0.00 | 0.00 | 84 | 1016.8 |
| 20260510151518 | 21 | 84 | 3.2 | 12.9 | 0.00 | 0.00 | 0.00 | 84 | 1016.8 |
| 20260510151426 | 21 | 83 | 3.2 | 12.9 | 0.00 | 0.00 | 0.00 | 85 | 1016.8 |
| 20260510151332 | 21 | 76 | 1.6 | 12.9 | 0.00 | 0.00 | 0.00 | 85 | 1016.9 |
| 20260510151220 | 21 | 90 | 1.6 | 12.9 | 0.00 | 0.00 | 0.00 | 85 | 1016.9 |
| 20260510151148 | 21 | 155 | 1.6 | 12.9 | 0.00 | 0.00 | 0.00 | 84 | 1016.9 |
| 20260510151016 | 21 | 162 | 4.8 | 12.9 | 0.00 | 0.00 | 0.00 | 85 | 1016.9 |
| 20260510150943 | 21 | 144 | 4.8 | 12.9 | 0.00 | 0.00 | 0.00 | 86 | 1016.9 |
| 20260510150813 | 21 | 159 | 3.2 | 8.0 | 0.00 | 0.00 | 0.00 | 86 | 1016.8 |
| 20260510150719 | 21 | 168 | 1.6 | 8.0 | 0.00 | 0.00 | 0.00 | 87 | 1016.9 |
| 20260510150646 | 21 | 200 | 1.6 | 6.4 | 0.00 | 0.00 | 0.00 | 87 | 1016.9 |
| 20260510150616 | 21 | 149 | 0.0 | 4.8 | 0.00 | 0.00 | 0.00 | 88 | 1017.0 |
| 20260510150314 | 21 | 150 | 0.0 | 4.8 | 0.00 | 0.00 | 0.00 | 89 | 1017.0 |
| 20260510150222 | 20 | 150 | 1.6 | 4.8 | 0.00 | 0.00 | 0.00 | 88 | 1017.0 |
| 20260510150129 | 20 | 150 | 1.6 | 4.8 | 0.00 | 0.00 | 0.00 | 88 | 1016.9 |
| 20260510150017 | 20 | 150 | 1.6 | 4.8 | 0.00 | 0.00 | 0.00 | 89 | 1016.8 |
| 20260510145925 | 20 | 148 | 1.6 | 4.8 | 0.00 | 0.00 | 0.00 | 90 | 1016.8 |
| 20260510145812 | 20 | 183 | 1.6 | 4.8 | 0.00 | 0.00 | 0.00 | 90 | 1016.9 |
| 20260510145724 | 20 | 144 | 1.6 | 4.8 | 0.00 | 0.00 | 0.00 | 91 | 1016.9 |
| 20260510145631 | 20 | 53 | 1.6 | 4.8 | 0.00 | 0.00 | 0.00 | 92 | 1016.9 |
| 20260510145540 | 20 | 33 | 1.6 | 4.8 | 0.00 | 0.00 | 0.00 | 93 | 1016.8 |
| 20260510145424 | 20 | 39 | 0.0 | 8.0 | 0.00 | 0.00 | 0.00 | 93 | 1016.8 |
| 20260510145331 | 20 | 86 | 1.6 | 8.0 | 0.00 | 0.00 | 0.00 | 93 | 1016.9 |
| 20260510145220 | 19 | 63 | 0.0 | 8.0 | 0.00 | 0.00 | 0.00 | 93 | 1016.9 |
| 20260510145130 | 19 | 63 | 0.0 | 8.0 | 0.00 | 0.00 | 0.00 | 93 | 1016.9 |
| 20260510145100 | 19 | 63 | 0.0 | 8.0 | 0.00 | 0.00 | 0.00 | 94 | 1016.9 |
| 20260510144813 | 19 | 128 | 1.6 | 8.0 | 0.00 | 0.00 | 0.00 | 94 | 1016.9 |
| 20260510144722 | 19 | 128 | 3.2 | 8.0 | 0.00 | 0.00 | 0.00 | 94 | 1016.9 |
| 20260510144649 | 19 | 128 | 4.8 | 8.0 | 0.00 | 0.00 | 0.00 | 94 | 1016.9 |
| 20260510144540 | 18 | 157 | 3.2 | 6.4 | 0.00 | 0.00 | 0.00 | 96 | 1016.9 |
| 20260510144427 | 18 | 122 | 1.6 | 6.4 | 0.00 | 0.00 | 0.00 | 96 | 1016.9 |
| 20260510144334 | 18 | 182 | 0.0 | 3.2 | 0.00 | 0.00 | 0.00 | 96 | 1017.0 |
| 20260510144239 | 18 | 45 | 1.6 | 3.2 | 0.00 | 0.00 | 0.00 | 96 | 1017.0 |
| 20260510144126 | 18 | 44 | 0.0 | 4.8 | 0.00 | 0.00 | 0.00 | 96 | 1017.0 |
| 20260510144033 | 18 | 87 | 0.0 | 6.4 | 0.00 | 0.00 | 0.00 | 96 | 1017.1 |
| 20260510143920 | 18 | 168 | 0.0 | 6.4 | 0.00 | 0.00 | 0.00 | 96 | 1017.1 |
| 20260510143847 | 18 | 168 | 0.0 | 6.4 | 0.00 | 0.00 | 0.00 | 96 | 1017.1 |
| 20260510143738 | 18 | 168 | 0.0 | 6.4 | 0.00 | 0.00 | 0.00 | 97 | 1017.0 |
| 20260510143625 | 18 | 168 | 1.6 | 6.4 | 0.00 | 0.00 | 0.00 | 96 | 1017.0 |
| 20260510143555 | 18 | 168 | 1.6 | 6.4 | 0.00 | 0.00 | 0.00 | 97 | 1017.0 |
| 20260510143327 | 18 | 173 | 3.2 | 6.4 | 0.00 | 0.00 | 0.00 | 97 | 1017.0 |
| 20260510143215 | 18 | 186 | 3.2 | 6.4 | 0.00 | 0.00 | 0.00 | 97 | 1017.1 |
| 20260510143147 | 18 | 184 | 3.2 | 6.4 | 0.00 | 0.00 | 0.00 | 97 | 1017.1 |
| 20260510143015 | 18 | 182 | 1.6 | 6.4 | 0.00 | 0.00 | 0.00 | 97 | 1017.1 |
| 20260510142922 | 18 | 183 | 1.6 | 6.4 | 0.00 | 0.00 | 0.00 | 97 | 1017.1 |
| 20260510142829 | 18 | 161 | 1.6 | 6.4 | 0.00 | 0.00 | 0.00 | 97 | 1017.0 |
| 20260510142716 | 18 | 161 | 3.2 | 6.4 | 0.00 | 0.00 | 0.00 | 97 | 1017.0 |
| 20260510142644 | 18 | 188 | 3.2 | 6.4 | 0.00 | 0.00 | 0.00 | 97 | 1017.0 |
| 20260510142514 | 17 | 213 | 3.2 | 6.4 | 0.00 | 0.00 | 0.00 | 97 | 1017.0 |
| 20260510142421 | 17 | 187 | 3.2 | 6.4 | 0.00 | 0.00 | 0.00 | 97 | 1017.0 |
| 20260510142329 | 17 | 256 | 3.2 | 6.4 | 0.00 | 0.00 | 0.00 | 97 | 1017.0 |
| 20260510142217 | 17 | 256 | 3.2 | 6.4 | 0.00 | 0.00 | 0.00 | 97 | 1017.0 |
| 20260510142145 | 17 | 202 | 3.2 | 6.4 | 0.00 | 0.00 | 0.00 | 97 | 1017.0 |
| 20260510142058 | 17 | 220 | 3.2 | 6.4 | 0.00 | 0.00 | 0.00 | 97 | 1017.0 |
| 20260510141831 | 17 | 190 | 3.2 | 6.4 | 0.00 | 0.00 | 0.00 | 97 | 1017.1 |
| 20260510141718 | 17 | 219 | 1.6 | 6.4 | 0.00 | 0.00 | 0.00 | 98 | 1016.9 |
| 20260510141625 | 17 | 212 | 1.6 | 6.4 | 0.00 | 0.00 | 0.00 | 98 | 1016.9 |
| 20260510141531 | 17 | 184 | 1.6 | 6.4 | 0.00 | 0.00 | 0.00 | 97 | 1016.9 |
| 20260510141438 | 17 | 198 | 3.2 | 6.4 | 0.00 | 0.00 | 0.00 | 97 | 1017.0 |
| 20260510141330 | 17 | 222 | 3.2 | 6.4 | 0.00 | 0.00 | 0.00 | 97 | 1017.0 |
| 20260510141216 | 17 | 194 | 1.6 | 6.4 | 0.00 | 0.00 | 0.00 | 97 | 1017.0 |
| 20260510141123 | 17 | 224 | 1.6 | 6.4 | 0.00 | 0.00 | 0.00 | 97 | 1017.0 |
| 20260510141030 | 17 | 214 | 1.6 | 6.4 | 0.00 | 0.00 | 0.00 | 97 | 1017.0 |
| 20260510140917 | 17 | 190 | 3.2 | 6.4 | 0.00 | 0.00 | 0.00 | 97 | 1017.1 |
| 20260510140845 | 17 | 202 | 3.2 | 6.4 | 0.00 | 0.00 | 0.00 | 98 | 1017.1 |
| 20260510140715 | 17 | 191 | 3.2 | 6.4 | 0.00 | 0.00 | 0.00 | 98 | 1017.0 |
| 20260510140622 | 17 | 197 | 1.6 | 6.4 | 0.00 | 0.00 | 0.00 | 98 | 1017.0 |
| 20260510140552 | 17 | 43 | 1.6 | 6.4 | 0.00 | 0.00 | 0.00 | 98 | 1017.1 |
| 20260510140327 | 17 | 99 | 1.6 | 6.4 | 0.00 | 0.00 | 0.00 | 98 | 1017.2 |
| 20260510140213 | 17 | 99 | 1.6 | 6.4 | 0.00 | 0.00 | 0.00 | 98 | 1017.2 |
| 20260510140145 | 17 | 100 | 1.6 | 6.4 | 0.00 | 0.00 | 0.00 | 98 | 1017.2 |
| 20260510140052 | 17 | 100 | 1.6 | 6.4 | 0.00 | 0.00 | 0.00 | 98 | 1017.1 |
| 20260510135918 | 17 | 104 | 1.6 | 6.4 | 0.00 | 0.00 | 0.00 | 98 | 1017.1 |
| 20260510135825 | 17 | 133 | 3.2 | 6.4 | 0.00 | 0.00 | 0.00 | 98 | 1017.1 |
| 20260510135733 | 17 | 133 | 3.2 | 6.4 | 0.00 | 0.00 | 0.00 | 97 | 1017.1 |
| 20260510135620 | 17 | 144 | 3.2 | 6.4 | 0.00 | 0.00 | 0.00 | 97 | 1017.0 |
| 20260510135527 | 17 | 138 | 1.6 | 6.4 | 0.00 | 0.00 | 0.00 | 97 | 1017.0 |
| 20260510135438 | 17 | 179 | 0.0 | 6.4 | 0.00 | 0.00 | 0.00 | 97 | 1017.0 |
| 20260510135324 | 17 | 179 | 1.6 | 9.7 | 0.00 | 0.00 | 0.00 | 98 | 1017.0 |
| 20260510135212 | 17 | 184 | 3.2 | 9.7 | 0.00 | 0.00 | 0.00 | 98 | 1017.0 |
| 20260510135140 | 17 | 188 | 3.2 | 9.7 | 0.00 | 0.00 | 0.00 | 97 | 1017.0 |
| 20260510135049 | 17 | 184 | 3.2 | 9.7 | 0.00 | 0.00 | 0.00 | 97 | 1017.0 |
| 20260510134826 | 17 | 150 | 3.2 | 9.7 | 0.00 | 0.00 | 0.00 | 97 | 1017.0 |
| 20260510134713 | 17 | 111 | 3.2 | 9.7 | 0.00 | 0.00 | 0.00 | 97 | 1017.0 |
| 20260510134621 | 17 | 161 | 4.8 | 9.7 | 0.00 | 0.00 | 0.00 | 97 | 1017.0 |
| 20260510134529 | 17 | 192 | 4.8 | 9.7 | 0.00 | 0.00 | 0.00 | 97 | 1016.9 |
| 20260510134417 | 17 | 186 | 6.4 | 9.7 | 0.00 | 0.00 | 0.00 | 97 | 1016.8 |
| 20260510134329 | 17 | 198 | 4.8 | 8.0 | 0.00 | 0.00 | 0.00 | 98 | 1016.8 |
| 20260510134216 | 17 | 161 | 3.2 | 6.4 | 0.00 | 0.00 | 0.00 | 98 | 1016.8 |
| 20260510134123 | 17 | 171 | 3.2 | 8.0 | 0.00 | 0.00 | 0.00 | 98 | 1016.8 |
| 20260510134050 | 17 | 128 | 3.2 | 8.0 | 0.00 | 0.00 | 0.00 | 98 | 1016.7 |
| 20260510133914 | 17 | 177 | 3.2 | 8.0 | 0.00 | 0.00 | 0.00 | 98 | 1016.8 |
| 20260510133823 | 17 | 155 | 3.2 | 9.7 | 0.00 | 0.00 | 0.00 | 98 | 1016.8 |
| 20260510133715 | 17 | 148 | 3.2 | 9.7 | 0.00 | 0.00 | 0.00 | 97 | 1016.8 |
| 20260510133621 | 17 | 142 | 4.8 | 9.7 | 0.00 | 0.00 | 0.00 | 97 | 1016.8 |
| 20260510133551 | 17 | 193 | 4.8 | 9.7 | 0.00 | 0.00 | 0.00 | 97 | 1016.8 |
| 20260510133325 | 17 | 183 | 3.2 | 9.7 | 0.00 | 0.00 | 0.00 | 97 | 1016.8 |
| 20260510133215 | 17 | 188 | 4.8 | 9.7 | 0.00 | 0.00 | 0.00 | 97 | 1016.8 |
| 20260510133122 | 17 | 210 | 4.8 | 9.7 | 0.00 | 0.00 | 0.00 | 97 | 1016.8 |
| 20260510133029 | 17 | 230 | 6.4 | 9.7 | 0.00 | 0.00 | 0.00 | 97 | 1016.8 |
| 20260510132917 | 17 | 202 | 3.2 | 9.7 | 0.00 | 0.00 | 0.00 | 97 | 1016.8 |
| 20260510132824 | 17 | 217 | 3.2 | 6.4 | 0.00 | 0.00 | 0.00 | 97 | 1016.8 |
| 20260510132712 | 17 | 163 | 3.2 | 6.4 | 0.00 | 0.00 | 0.00 | 98 | 1016.8 |
| 20260510132625 | 17 | 154 | 4.8 | 6.4 | 0.00 | 0.00 | 0.00 | 98 | 1016.8 |
| 20260510132551 | 17 | 159 | 4.8 | 6.4 | 0.00 | 0.00 | 0.00 | 97 | 1016.7 |
| 20260510132418 | 17 | 117 | 3.2 | 6.4 | 0.00 | 0.00 | 0.00 | 98 | 1016.8 |
| 20260510132325 | 17 | 118 | 1.6 | 6.4 | 0.00 | 0.00 | 0.00 | 98 | 1016.8 |
| 20260510132213 | 17 | 128 | 1.6 | 6.4 | 0.00 | 0.00 | 0.00 | 98 | 1016.8 |
| 20260510132140 | 17 | 109 | 1.6 | 6.4 | 0.00 | 0.00 | 0.00 | 98 | 1016.8 |
| 20260510132114 | 17 | 98 | 0.0 | 6.4 | 0.00 | 0.00 | 0.00 | 97 | 1016.8 |
| 20260510131827 | 16 | 100 | 1.6 | 6.4 | 0.00 | 0.00 | 0.00 | 97 | 1016.7 |
| 20260510131714 | 16 | 169 | 3.2 | 6.4 | 0.00 | 0.00 | 0.00 | 97 | 1016.7 |
| 20260510131620 | 16 | 174 | 1.6 | 6.4 | 0.00 | 0.00 | 0.00 | 97 | 1016.7 |
| 20260510131528 | 16 | 130 | 0.0 | 4.8 | 0.00 | 0.00 | 0.00 | 97 | 1016.7 |
| 20260510131439 | 16 | 130 | 1.6 | 4.8 | 0.00 | 0.00 | 0.00 | 97 | 1016.6 |
| 20260510131326 | 16 | 130 | 3.2 | 4.8 | 0.00 | 0.00 | 0.00 | 97 | 1016.6 |
| 20260510131233 | 16 | 149 | 3.2 | 4.8 | 0.00 | 0.00 | 0.00 | 98 | 1016.8 |
| 20260510131120 | 17 | 103 | 1.6 | 4.8 | 0.00 | 0.00 | 0.00 | 98 | 1016.7 |
| 20260510131048 | 16 | 103 | 1.6 | 4.8 | 0.00 | 0.00 | 0.00 | 98 | 1016.7 |
| 20260510130935 | 16 | 82 | 3.2 | 4.8 | 0.00 | 0.00 | 0.00 | 98 | 1016.7 |
| 20260510130820 | 16 | 74 | 3.2 | 4.8 | 0.00 | 0.00 | 0.00 | 98 | 1016.7 |
| 20260510130712 | 16 | 74 | 1.6 | 4.8 | 0.00 | 0.00 | 0.00 | 98 | 1016.7 |
| 20260510130620 | 16 | 74 | 1.6 | 3.2 | 0.00 | 0.00 | 0.00 | 98 | 1016.7 |
| 20260510130550 | 16 | 74 | 1.6 | 3.2 | 0.00 | 0.00 | 0.00 | 97 | 1016.7 |
| 20260510130345 | 16 | 74 | 1.6 | 3.2 | 0.00 | 0.00 | 0.00 | 97 | 1016.6 |
| 20260510130212 | 16 | 74 | 1.6 | 4.8 | 0.00 | 0.00 | 0.00 | 97 | 1016.6 |
| 20260510130145 | 16 | 84 | 0.0 | 4.8 | 0.00 | 0.00 | 0.00 | 97 | 1016.6 |
| 20260510130032 | 16 | 120 | 0.0 | 4.8 | 0.00 | 0.00 | 0.00 | 97 | 1016.6 |
| 20260510125919 | 16 | 120 | 1.6 | 4.8 | 0.00 | 0.00 | 0.00 | 98 | 1016.5 |
| 20260510125826 | 16 | 120 | 1.6 | 4.8 | 0.00 | 0.00 | 0.00 | 97 | 1016.5 |
| 20260510125735 | 16 | 121 | 1.6 | 4.8 | 0.00 | 0.00 | 0.00 | 97 | 1016.5 |
| 20260510125642 | 16 | 102 | 3.2 | 4.8 | 0.00 | 0.00 | 0.00 | 97 | 1016.5 |
| 20260510125528 | 16 | 98 | 3.2 | 4.8 | 0.00 | 0.00 | 0.00 | 97 | 1016.5 |
| 20260510125419 | 16 | 105 | 3.2 | 4.8 | 0.00 | 0.00 | 0.00 | 97 | 1016.5 |
| 20260510125327 | 16 | 96 | 3.2 | 4.8 | 0.00 | 0.00 | 0.00 | 97 | 1016.5 |
| 20260510125213 | 16 | 121 | 1.6 | 4.8 | 0.00 | 0.00 | 0.00 | 97 | 1016.5 |
| 20260510125120 | 16 | 121 | 0.0 | 4.8 | 0.00 | 0.00 | 0.00 | 97 | 1016.5 |
| 20260510125055 | 16 | 121 | 0.0 | 4.8 | 0.00 | 0.00 | 0.00 | 97 | 1016.5 |
| 20260510124828 | 16 | 121 | 0.0 | 3.2 | 0.00 | 0.00 | 0.00 | 97 | 1016.4 |
| 20260510124716 | 16 | 120 | 1.6 | 3.2 | 0.00 | 0.00 | 0.00 | 97 | 1016.4 |
| 20260510124623 | 16 | 120 | 1.6 | 3.2 | 0.00 | 0.00 | 0.00 | 97 | 1016.4 |
| 20260510124530 | 16 | 120 | 0.0 | 3.2 | 0.00 | 0.00 | 0.00 | 97 | 1016.4 |
| 20260510124422 | 16 | 121 | 0.0 | 3.2 | 0.00 | 0.00 | 0.00 | 97 | 1016.4 |
| 20260510124330 | 16 | 121 | 0.0 | 4.8 | 0.00 | 0.00 | 0.00 | 97 | 1016.4 |
| 20260510124217 | 16 | 121 | 0.0 | 4.8 | 0.00 | 0.00 | 0.00 | 97 | 1016.5 |
| 20260510124125 | 16 | 121 | 0.0 | 4.8 | 0.00 | 0.00 | 0.00 | 97 | 1016.5 |
| 20260510124013 | 16 | 121 | 0.0 | 4.8 | 0.00 | 0.00 | 0.00 | 97 | 1016.4 |
| 20260510123920 | 16 | 120 | 0.0 | 4.8 | 0.00 | 0.00 | 0.00 | 97 | 1016.4 |
| 20260510123812 | 16 | 121 | 0.0 | 6.4 | 0.00 | 0.00 | 0.00 | 97 | 1016.4 |
| 20260510123720 | 16 | 121 | 1.6 | 6.4 | 0.00 | 0.00 | 0.00 | 97 | 1016.3 |
| 20260510123627 | 16 | 121 | 1.6 | 6.4 | 0.00 | 0.00 | 0.00 | 97 | 1016.3 |
| 20260510123556 | 16 | 121 | 1.6 | 6.4 | 0.00 | 0.00 | 0.00 | 97 | 1016.3 |
| 20260510123334 | 16 | 113 | 3.2 | 6.4 | 0.00 | 0.00 | 0.00 | 97 | 1016.4 |
| 20260510123221 | 16 | 113 | 4.8 | 6.4 | 0.00 | 0.00 | 0.00 | 97 | 1016.4 |
| 20260510123149 | 16 | 126 | 4.8 | 6.4 | 0.00 | 0.00 | 0.00 | 97 | 1016.3 |
| 20260510123015 | 16 | 112 | 3.2 | 9.7 | 0.00 | 0.00 | 0.00 | 97 | 1016.3 |
| 20260510122923 | 16 | 115 | 1.6 | 9.7 | 0.00 | 0.00 | 0.00 | 97 | 1016.3 |
| 20260510122831 | 16 | 132 | 1.6 | 9.7 | 0.00 | 0.00 | 0.00 | 97 | 1016.3 |
| 20260510122722 | 16 | 113 | 3.2 | 9.7 | 0.00 | 0.00 | 0.00 | 97 | 1016.3 |
| 20260510122649 | 16 | 115 | 3.2 | 9.7 | 0.00 | 0.00 | 0.00 | 97 | 1016.2 |
| 20260510122516 | 16 | 115 | 4.8 | 9.7 | 0.00 | 0.00 | 0.00 | 97 | 1016.2 |
| 20260510122445 | 16 | 125 | 4.8 | 9.7 | 0.00 | 0.00 | 0.00 | 97 | 1016.2 |
| 20260510122331 | 16 | 126 | 4.8 | 9.7 | 0.00 | 0.00 | 0.00 | 97 | 1016.2 |
| 20260510122218 | 16 | 142 | 4.8 | 8.0 | 0.00 | 0.00 | 0.00 | 97 | 1016.2 |
| 20260510122125 | 16 | 119 | 4.8 | 8.0 | 0.00 | 0.00 | 0.00 | 97 | 1016.2 |
| 20260510122100 | 16 | 122 | 4.8 | 8.0 | 0.00 | 0.00 | 0.00 | 97 | 1016.1 |
| 20260510121832 | 16 | 145 | 4.8 | 8.0 | 0.00 | 0.00 | 0.00 | 97 | 1016.1 |
| 20260510121720 | 16 | 150 | 6.4 | 8.0 | 0.00 | 0.00 | 0.00 | 97 | 1016.1 |
| 20260510121627 | 16 | 146 | 6.4 | 8.0 | 0.00 | 0.00 | 0.00 | 97 | 1016.1 |
| 20260510121519 | 16 | 133 | 4.8 | 8.0 | 0.00 | 0.00 | 0.00 | 97 | 1016.2 |
| 20260510121446 | 16 | 140 | 4.8 | 8.0 | 0.00 | 0.00 | 0.00 | 97 | 1016.2 |
| 20260510121331 | 16 | 134 | 4.8 | 8.0 | 0.00 | 0.00 | 0.00 | 97 | 1016.2 |
| 20260510121218 | 16 | 141 | 6.4 | 8.0 | 0.00 | 0.00 | 0.00 | 97 | 1016.1 |
| 20260510121125 | 16 | 132 | 6.4 | 9.7 | 0.00 | 0.00 | 0.00 | 97 | 1016.1 |
| 20260510121014 | 16 | 139 | 6.4 | 9.7 | 0.00 | 0.00 | 0.00 | 97 | 1016.2 |
| 20260510120926 | 16 | 133 | 4.8 | 9.7 | 0.00 | 0.00 | 0.00 | 97 | 1016.2 |
| 20260510120813 | 16 | 140 | 3.2 | 9.7 | 0.00 | 0.00 | 0.00 | 97 | 1016.2 |
| 20260510120741 | 16 | 154 | 3.2 | 9.7 | 0.00 | 0.00 | 0.00 | 97 | 1016.2 |
| 20260510120647 | 16 | 151 | 3.2 | 9.7 | 0.00 | 0.00 | 0.00 | 97 | 1016.2 |
| 20260510120616 | 16 | 187 | 3.2 | 9.7 | 0.00 | 0.00 | 0.00 | 97 | 1016.1 |
| 20260510120312 | 16 | 119 | 4.8 | 9.7 | 0.00 | 0.00 | 0.00 | 97 | 1016.0 |
| 20260510120219 | 16 | 189 | 6.4 | 9.7 | 0.00 | 0.00 | 0.00 | 97 | 1016.0 |
| 20260510120126 | 16 | 191 | 6.4 | 9.7 | 0.00 | 0.00 | 0.00 | 97 | 1016.0 |
| 20260510120012 | 16 | 183 | 3.2 | 8.0 | 0.00 | 0.00 | 0.00 | 97 | 1016.1 |
| 20260510115919 | 16 | 169 | 3.2 | 8.0 | 0.00 | 0.00 | 0.00 | 97 | 1016.1 |
| 20260510115826 | 16 | 148 | 3.2 | 8.0 | 0.00 | 0.00 | 0.00 | 97 | 1016.1 |
| 20260510115716 | 16 | 142 | 1.6 | 8.0 | 0.00 | 0.00 | 0.00 | 97 | 1016.0 |
| 20260510115624 | 16 | 170 | 1.6 | 8.0 | 0.00 | 0.00 | 0.00 | 97 | 1016.0 |
| 20260510115552 | 16 | 180 | 1.6 | 8.0 | 0.00 | 0.00 | 0.00 | 97 | 1016.1 |
| 20260510115418 | 16 | 144 | 3.2 | 8.0 | 0.00 | 0.00 | 0.00 | 97 | 1016.0 |
| 20260510115326 | 16 | 189 | 3.2 | 8.0 | 0.00 | 0.00 | 0.00 | 97 | 1016.0 |
| 20260510115214 | 16 | 182 | 1.6 | 4.8 | 0.00 | 0.00 | 0.00 | 97 | 1015.9 |
| 20260510115126 | 16 | 148 | 1.6 | 4.8 | 0.00 | 0.00 | 0.00 | 97 | 1015.9 |
| 20260510115057 | 16 | 148 | 3.2 | 4.8 | 0.00 | 0.00 | 0.00 | 97 | 1015.9 |
| 20260510114830 | 16 | 201 | 1.6 | 6.4 | 0.00 | 0.00 | 0.00 | 97 | 1015.8 |
| 20260510114717 | 16 | 167 | 1.6 | 4.8 | 0.00 | 0.00 | 0.00 | 97 | 1015.8 |
| 20260510114628 | 16 | 122 | 1.6 | 4.8 | 0.00 | 0.00 | 0.00 | 97 | 1015.8 |
| 20260510114516 | 16 | 131 | 1.6 | 4.8 | 0.00 | 0.00 | 0.00 | 97 | 1015.8 |
| 20260510114424 | 16 | 131 | 3.2 | 4.8 | 0.00 | 0.00 | 0.00 | 97 | 1015.8 |
| 20260510114332 | 16 | 124 | 3.2 | 4.8 | 0.00 | 0.00 | 0.00 | 97 | 1015.9 |
| 20260510114218 | 16 | 153 | 1.6 | 4.8 | 0.00 | 0.00 | 0.00 | 97 | 1015.7 |
| 20260510114125 | 16 | 137 | 3.2 | 4.8 | 0.00 | 0.00 | 0.00 | 97 | 1015.7 |
| 20260510114017 | 16 | 146 | 3.2 | 4.8 | 0.00 | 0.00 | 0.00 | 97 | 1015.6 |
| 20260510113924 | 16 | 145 | 3.2 | 4.8 | 0.00 | 0.00 | 0.00 | 97 | 1015.6 |
| 20260510113812 | 16 | 126 | 3.2 | 4.8 | 0.00 | 0.00 | 0.00 | 97 | 1015.6 |
| 20260510113720 | 16 | 126 | 3.2 | 4.8 | 0.00 | 0.00 | 0.00 | 97 | 1015.6 |
| 20260510113649 | 15 | 127 | 3.2 | 4.8 | 0.00 | 0.00 | 0.00 | 97 | 1015.6 |
| 20260510113601 | 15 | 135 | 3.2 | 4.8 | 0.00 | 0.00 | 0.00 | 97 | 1015.5 |
| 20260510113315 | 15 | 120 | 1.6 | 4.8 | 0.00 | 0.00 | 0.00 | 97 | 1015.5 |
| 20260510113223 | 15 | 126 | 1.6 | 3.2 | 0.00 | 0.00 | 0.00 | 97 | 1015.5 |
| 20260510113151 | 15 | 126 | 1.6 | 3.2 | 0.00 | 0.00 | 0.00 | 97 | 1015.5 |
| 20260510113016 | 15 | 126 | 1.6 | 3.2 | 0.00 | 0.00 | 0.00 | 97 | 1015.6 |
| 20260510112928 | 15 | 126 | 1.6 | 4.8 | 0.00 | 0.00 | 0.00 | 97 | 1015.6 |
| 20260510112814 | 15 | 126 | 1.6 | 6.4 | 0.00 | 0.00 | 0.00 | 97 | 1015.6 |
| 20260510112722 | 15 | 126 | 1.6 | 6.4 | 0.00 | 0.00 | 0.00 | 97 | 1015.6 |
| 20260510112630 | 15 | 126 | 1.6 | 6.4 | 0.00 | 0.00 | 0.00 | 97 | 1015.5 |
| 20260510112518 | 15 | 140 | 0.0 | 6.4 | 0.00 | 0.00 | 0.00 | 97 | 1015.5 |
| 20260510112446 | 15 | 140 | 1.6 | 6.4 | 0.00 | 0.00 | 0.00 | 97 | 1015.5 |
| 20260510112316 | 15 | 140 | 1.6 | 6.4 | 0.00 | 0.00 | 0.00 | 97 | 1015.4 |
| 20260510112223 | 15 | 140 | 3.2 | 6.4 | 0.00 | 0.00 | 0.00 | 97 | 1015.4 |
| 20260510112130 | 15 | 128 | 3.2 | 6.4 | 0.00 | 0.00 | 0.00 | 97 | 1015.4 |
| 20260510112059 | 15 | 132 | 3.2 | 6.4 | 0.00 | 0.00 | 0.00 | 97 | 1015.4 |
| 20260510111832 | 15 | 148 | 3.2 | 6.4 | 0.00 | 0.00 | 0.00 | 97 | 1015.3 |
| 20260510111723 | 15 | 186 | 3.2 | 6.4 | 0.00 | 0.00 | 0.00 | 97 | 1015.3 |
| 20260510111630 | 15 | 175 | 3.2 | 6.4 | 0.00 | 0.00 | 0.00 | 97 | 1015.3 |
| 20260510111539 | 15 | 151 | 3.2 | 6.4 | 0.00 | 0.00 | 0.00 | 97 | 1015.2 |
| 20260510111426 | 15 | 149 | 3.2 | 6.4 | 0.00 | 0.00 | 0.00 | 97 | 1015.2 |
| 20260510111314 | 15 | 138 | 3.2 | 6.4 | 0.00 | 0.00 | 0.00 | 97 | 1015.2 |
| 20260510111241 | 15 | 140 | 1.6 | 6.4 | 0.00 | 0.00 | 0.00 | 97 | 1015.2 |
| 20260510111132 | 15 | 119 | 1.6 | 4.8 | 0.00 | 0.00 | 0.00 | 97 | 1015.2 |
| 20260510111019 | 15 | 142 | 3.2 | 4.8 | 0.00 | 0.00 | 0.00 | 97 | 1015.2 |
| 20260510110927 | 15 | 142 | 3.2 | 4.8 | 0.00 | 0.00 | 0.00 | 97 | 1015.2 |
| 20260510110836 | 15 | 142 | 1.6 | 4.8 | 0.00 | 0.00 | 0.00 | 97 | 1015.2 |
| 20260510110722 | 15 | 155 | 1.6 | 4.8 | 0.00 | 0.00 | 0.00 | 96 | 1015.2 |
| 20260510110629 | 15 | 155 | 1.6 | 4.8 | 0.00 | 0.00 | 0.00 | 96 | 1015.2 |
| 20260510110605 | 15 | 155 | 1.6 | 4.8 | 0.00 | 0.00 | 0.00 | 96 | 1015.1 |
| 20260510110319 | 15 | 155 | 1.6 | 4.8 | 0.00 | 0.00 | 0.00 | 96 | 1015.2 |
| 20260510110227 | 15 | 155 | 1.6 | 4.8 | 0.00 | 0.00 | 0.00 | 96 | 1015.2 |
| 20260510110134 | 15 | 155 | 0.0 | 0.0 | 0.00 | 0.00 | 0.00 | 96 | 1015.0 |
| 20260510110022 | 15 | 155 | 0.0 | 1.6 | 0.00 | 0.00 | 0.00 | 96 | 1015.0 |
| 20260510105953 | 15 | 155 | 0.0 | 1.6 | 0.00 | 0.00 | 0.00 | 96 | 1015.0 |
| 20260510105819 | 15 | 155 | 0.0 | 1.6 | 0.00 | 0.00 | 0.00 | 96 | 1014.9 |
| 20260510105747 | 15 | 155 | 0.0 | 1.6 | 0.00 | 0.00 | 0.00 | 96 | 1014.9 |
| 20260510105613 | 15 | 155 | 0.0 | 1.6 | 0.00 | 0.00 | 0.00 | 96 | 1014.9 |
| 20260510105521 | 15 | 155 | 0.0 | 1.6 | 0.00 | 0.00 | 0.00 | 96 | 1014.9 |
| 20260510105429 | 15 | 155 | 0.0 | 1.6 | 0.00 | 0.00 | 0.00 | 96 | 1014.9 |
| 20260510105319 | 15 | 155 | 0.0 | 1.6 | 0.00 | 0.00 | 0.00 | 96 | 1014.9 |
| 20260510105227 | 15 | 155 | 0.0 | 1.6 | 0.00 | 0.00 | 0.00 | 96 | 1014.9 |
| 20260510105154 | 15 | 155 | 1.6 | 1.6 | 0.00 | 0.00 | 0.00 | 96 | 1014.9 |
| 20260510105104 | 15 | 155 | 1.6 | 1.6 | 0.00 | 0.00 | 0.00 | 96 | 1014.8 |
| 20260510104818 | 15 | 155 | 1.6 | 1.6 | 0.00 | 0.00 | 0.00 | 96 | 1014.8 |
| 20260510104729 | 15 | 155 | 1.6 | 1.6 | 0.00 | 0.00 | 0.00 | 96 | 1014.8 |
| 20260510104616 | 15 | 155 | 0.0 | 1.6 | 0.00 | 0.00 | 0.00 | 96 | 1014.7 |
| 20260510104524 | 15 | 155 | 0.0 | 1.6 | 0.00 | 0.00 | 0.00 | 96 | 1014.7 |
| 20260510104432 | 15 | 155 | 0.0 | 1.6 | 0.00 | 0.00 | 0.00 | 96 | 1014.6 |
| 20260510104318 | 15 | 155 | 0.0 | 1.6 | 0.00 | 0.00 | 0.00 | 96 | 1014.7 |
| 20260510104230 | 15 | 155 | 0.0 | 1.6 | 0.00 | 0.00 | 0.00 | 96 | 1014.7 |
| 20260510104117 | 15 | 155 | 0.0 | 1.6 | 0.00 | 0.00 | 0.00 | 96 | 1014.6 |
| 20260510104024 | 15 | 155 | 0.0 | 1.6 | 0.00 | 0.00 | 0.00 | 96 | 1014.6 |
| 20260510103912 | 15 | 155 | 0.0 | 1.6 | 0.00 | 0.00 | 0.00 | 96 | 1014.6 |
| 20260510103819 | 15 | 155 | 1.6 | 1.6 | 0.00 | 0.00 | 0.00 | 96 | 1014.5 |
| 20260510103727 | 15 | 155 | 1.6 | 3.2 | 0.00 | 0.00 | 0.00 | 96 | 1014.5 |
| 20260510103620 | 15 | 155 | 1.6 | 3.2 | 0.00 | 0.00 | 0.00 | 96 | 1014.6 |
| 20260510103551 | 15 | 155 | 0.0 | 3.2 | 0.00 | 0.00 | 0.00 | 96 | 1014.5 |
| 20260510103324 | 15 | 155 | 0.0 | 4.8 | 0.00 | 0.00 | 0.00 | 96 | 1014.4 |
| 20260510103213 | 15 | 155 | 0.0 | 4.8 | 0.00 | 0.00 | 0.00 | 96 | 1014.4 |
| 20260510103124 | 15 | 155 | 0.0 | 4.8 | 0.00 | 0.00 | 0.00 | 96 | 1014.4 |
| 20260510103013 | 15 | 155 | 1.6 | 4.8 | 0.00 | 0.00 | 0.00 | 96 | 1014.5 |
| 20260510102921 | 15 | 155 | 1.6 | 4.8 | 0.00 | 0.00 | 0.00 | 96 | 1014.5 |
| 20260510102829 | 15 | 155 | 1.6 | 4.8 | 0.00 | 0.00 | 0.00 | 96 | 1014.3 |
| 20260510102716 | 15 | 155 | 1.6 | 4.8 | 0.00 | 0.00 | 0.00 | 96 | 1014.3 |
| 20260510102626 | 15 | 155 | 3.2 | 4.8 | 0.00 | 0.00 | 0.00 | 96 | 1014.3 |
| 20260510102514 | 15 | 158 | 3.2 | 4.8 | 0.00 | 0.00 | 0.00 | 96 | 1014.4 |
| 20260510102419 | 15 | 151 | 1.6 | 3.2 | 0.00 | 0.00 | 0.00 | 96 | 1014.4 |
| 20260510102328 | 15 | 151 | 1.6 | 4.8 | 0.00 | 0.00 | 0.00 | 96 | 1014.4 |
| 20260510102214 | 15 | 151 | 1.6 | 4.8 | 0.00 | 0.00 | 0.00 | 96 | 1014.4 |
| 20260510102121 | 15 | 151 | 1.6 | 4.8 | 0.00 | 0.00 | 0.00 | 96 | 1014.4 |
| 20260510102056 | 15 | 151 | 1.6 | 4.8 | 0.00 | 0.00 | 0.00 | 96 | 1014.4 |
| 20260510101829 | 15 | 151 | 1.6 | 4.8 | 0.00 | 0.00 | 0.00 | 96 | 1014.4 |
| 20260510101716 | 15 | 151 | 1.6 | 4.8 | 0.00 | 0.00 | 0.00 | 96 | 1014.3 |
| 20260510101624 | 14 | 151 | 3.2 | 4.8 | 0.00 | 0.00 | 0.00 | 96 | 1014.3 |
| 20260510101514 | 14 | 151 | 3.2 | 4.8 | 0.00 | 0.00 | 0.00 | 96 | 1014.3 |
| 20260510101422 | 14 | 151 | 3.2 | 4.8 | 0.00 | 0.00 | 0.00 | 96 | 1014.3 |
| 20260510101351 | 14 | 151 | 4.8 | 4.8 | 0.00 | 0.00 | 0.00 | 96 | 1014.2 |
| 20260510101218 | 14 | 142 | 3.2 | 4.8 | 0.00 | 0.00 | 0.00 | 96 | 1014.3 |
| 20260510101126 | 14 | 191 | 3.2 | 4.8 | 0.00 | 0.00 | 0.00 | 95 | 1014.3 |
| 20260510101012 | 14 | 191 | 3.2 | 3.2 | 0.00 | 0.00 | 0.00 | 95 | 1014.3 |
| 20260510100939 | 14 | 191 | 1.6 | 3.2 | 0.00 | 0.00 | 0.00 | 95 | 1014.4 |
| 20260510100830 | 14 | 191 | 1.6 | 3.2 | 0.00 | 0.00 | 0.00 | 95 | 1014.4 |
| 20260510100716 | 14 | 191 | 0.0 | 1.6 | 0.00 | 0.00 | 0.00 | 95 | 1014.4 |
| 20260510100625 | 14 | 191 | 0.0 | 1.6 | 0.00 | 0.00 | 0.00 | 95 | 1014.4 |
| 20260510100555 | 14 | 191 | 0.0 | 3.2 | 0.00 | 0.00 | 0.00 | 95 | 1014.4 |
| 20260510100313 | 14 | 191 | 0.0 | 3.2 | 0.00 | 0.00 | 0.00 | 95 | 1014.3 |
| 20260510100220 | 14 | 191 | 0.0 | 3.2 | 0.00 | 0.00 | 0.00 | 95 | 1014.3 |
| 20260510100127 | 14 | 191 | 0.0 | 3.2 | 0.00 | 0.00 | 0.00 | 95 | 1014.3 |
| 20260510100014 | 14 | 191 | 0.0 | 3.2 | 0.00 | 0.00 | 0.00 | 95 | 1014.2 |
| 20260510095943 | 14 | 191 | 1.6 | 3.2 | 0.00 | 0.00 | 0.00 | 95 | 1014.2 |
| 20260510095829 | 14 | 191 | 1.6 | 3.2 | 0.00 | 0.00 | 0.00 | 95 | 1014.2 |
| 20260510095721 | 14 | 191 | 1.6 | 3.2 | 0.00 | 0.00 | 0.00 | 95 | 1014.3 |
| 20260510095629 | 14 | 191 | 1.6 | 3.2 | 0.00 | 0.00 | 0.00 | 95 | 1014.3 |
| 20260510095516 | 14 | 191 | 1.6 | 3.2 | 0.00 | 0.00 | 0.00 | 95 | 1014.3 |
| 20260510095424 | 14 | 191 | 0.0 | 1.6 | 0.00 | 0.00 | 0.00 | 95 | 1014.3 |
| 20260510095330 | 14 | 191 | 0.0 | 1.6 | 0.00 | 0.00 | 0.00 | 95 | 1014.3 |
| 20260510095222 | 14 | 191 | 0.0 | 1.6 | 0.00 | 0.00 | 0.00 | 95 | 1014.3 |
| 20260510095128 | 14 | 191 | 0.0 | 1.6 | 0.00 | 0.00 | 0.00 | 95 | 1014.3 |
| 20260510095056 | 14 | 191 | 0.0 | 0.0 | 0.00 | 0.00 | 0.00 | 95 | 1014.1 |
| 20260510094849 | 14 | 191 | 0.0 | 0.0 | 0.00 | 0.00 | 0.00 | 95 | 1014.1 |
| 20260510094716 | 14 | 191 | 0.0 | 0.0 | 0.00 | 0.00 | 0.00 | 94 | 1014.2 |
| 20260510094623 | 14 | 191 | 0.0 | 0.0 | 0.00 | 0.00 | 0.00 | 94 | 1014.2 |
| 20260510094514 | 14 | 191 | 0.0 | 0.0 | 0.00 | 0.00 | 0.00 | 94 | 1014.3 |
| 20260510094421 | 14 | 191 | 0.0 | 0.0 | 0.00 | 0.00 | 0.00 | 94 | 1014.3 |
| 20260510094328 | 14 | 191 | 0.0 | 0.0 | 0.00 | 0.00 | 0.00 | 94 | 1014.1 |
| 20260510094216 | 14 | 191 | 0.0 | 0.0 | 0.00 | 0.00 | 0.00 | 94 | 1014.1 |
| 20260510094143 | 14 | 191 | 0.0 | 0.0 | 0.00 | 0.00 | 0.00 | 94 | 1014.1 |
| 20260510094014 | 14 | 191 | 0.0 | 0.0 | 0.00 | 0.00 | 0.00 | 94 | 1014.1 |
| 20260510093942 | 14 | 191 | 0.0 | 0.0 | 0.00 | 0.00 | 0.00 | 95 | 1014.1 |
| 20260510093827 | 14 | 191 | 0.0 | 0.0 | 0.00 | 0.00 | 0.00 | 95 | 1014.0 |
| 20260510093734 | 14 | 191 | 0.0 | 0.0 | 0.00 | 0.00 | 0.00 | 95 | 1014.1 |
| 20260510093640 | 14 | 191 | 0.0 | 0.0 | 0.00 | 0.00 | 0.00 | 95 | 1014.0 |
| 20260510093550 | 14 | 191 | 0.0 | 0.0 | 0.00 | 0.00 | 0.00 | 95 | 1014.0 |
| 20260510093328 | 14 | 191 | 0.0 | 0.0 | 0.00 | 0.00 | 0.00 | 95 | 1014.1 |
| 20260510093214 | 14 | 191 | 0.0 | 0.0 | 0.00 | 0.00 | 0.00 | 95 | 1014.0 |
| 20260510093123 | 14 | 191 | 0.0 | 0.0 | 0.00 | 0.00 | 0.00 | 95 | 1014.0 |
| 20260510093030 | 14 | 191 | 0.0 | 0.0 | 0.00 | 0.00 | 0.00 | 95 | 1014.1 |
| 20260510092919 | 14 | 191 | 0.0 | 0.0 | 0.00 | 0.00 | 0.00 | 95 | 1014.1 |
| 20260510092826 | 14 | 191 | 0.0 | 0.0 | 0.00 | 0.00 | 0.00 | 95 | 1014.1 |
| 20260510092737 | 14 | 191 | 0.0 | 0.0 | 0.00 | 0.00 | 0.00 | 95 | 1014.1 |
| 20260510092645 | 14 | 191 | 0.0 | 0.0 | 0.00 | 0.00 | 0.00 | 95 | 1014.1 |
| 20260510092531 | 14 | 191 | 0.0 | 0.0 | 0.00 | 0.00 | 0.00 | 95 | 1014.2 |
| 20260510092419 | 14 | 191 | 0.0 | 0.0 | 0.00 | 0.00 | 0.00 | 95 | 1014.2 |
| 20260510092346 | 14 | 191 | 0.0 | 0.0 | 0.00 | 0.00 | 0.00 | 95 | 1014.2 |
| 20260510092212 | 14 | 191 | 0.0 | 0.0 | 0.00 | 0.00 | 0.00 | 95 | 1014.2 |
| 20260510092124 | 14 | 191 | 0.0 | 0.0 | 0.00 | 0.00 | 0.00 | 95 | 1014.2 |
| 20260510092054 | 14 | 191 | 0.0 | 0.0 | 0.00 | 0.00 | 0.00 | 95 | 1014.2 |
| 20260510091847 | 14 | 191 | 0.0 | 0.0 | 0.00 | 0.00 | 0.00 | 95 | 1014.2 |
| 20260510091712 | 14 | 191 | 0.0 | 0.0 | 0.00 | 0.00 | 0.00 | 95 | 1014.1 |
| 20260510091640 | 14 | 191 | 0.0 | 0.0 | 0.00 | 0.00 | 0.00 | 94 | 1014.2 |
| 20260510091527 | 14 | 191 | 0.0 | 0.0 | 0.00 | 0.00 | 0.00 | 94 | 1014.2 |
| 20260510091418 | 14 | 191 | 0.0 | 0.0 | 0.00 | 0.00 | 0.00 | 94 | 1014.3 |
| 20260510091345 | 14 | 191 | 0.0 | 0.0 | 0.00 | 0.00 | 0.00 | 94 | 1014.3 |
| 20260510091232 | 14 | 191 | 0.0 | 0.0 | 0.00 | 0.00 | 0.00 | 94 | 1014.3 |
| 20260510091118 | 14 | 191 | 0.0 | 0.0 | 0.00 | 0.00 | 0.00 | 94 | 1014.2 |
| 20260510091027 | 14 | 191 | 0.0 | 0.0 | 0.00 | 0.00 | 0.00 | 94 | 1014.2 |
| 20260510090918 | 14 | 191 | 0.0 | 0.0 | 0.00 | 0.00 | 0.00 | 94 | 1014.3 |
| 20260510090826 | 14 | 191 | 0.0 | 0.0 | 0.00 | 0.00 | 0.00 | 94 | 1014.3 |
| 20260510090713 | 14 | 191 | 0.0 | 0.0 | 0.00 | 0.00 | 0.00 | 94 | 1014.4 |
| 20260510090620 | 14 | 191 | 0.0 | 0.0 | 0.00 | 0.00 | 0.00 | 94 | 1014.4 |
| 20260510090551 | 14 | 191 | 0.0 | 0.0 | 0.00 | 0.00 | 0.00 | 94 | 1014.3 |
| 20260510090330 | 15 | 191 | 0.0 | 0.0 | 0.00 | 0.00 | 0.00 | 94 | 1014.3 |
| 20260510090217 | 15 | 191 | 0.0 | 0.0 | 0.00 | 0.00 | 0.00 | 94 | 1014.3 |
| 20260510090126 | 15 | 191 | 0.0 | 0.0 | 0.00 | 0.00 | 0.00 | 94 | 1014.3 |
| 20260510090053 | 15 | 191 | 0.0 | 0.0 | 0.00 | 0.00 | 0.00 | 94 | 1014.3 |
| 20260510085918 | 15 | 191 | 0.0 | 0.0 | 0.00 | 0.00 | 0.00 | 94 | 1014.3 |
| 20260510085826 | 15 | 191 | 0.0 | 0.0 | 0.00 | 0.00 | 0.00 | 94 | 1014.3 |
| 20260510085716 | 15 | 191 | 0.0 | 0.0 | 0.00 | 0.00 | 0.00 | 94 | 1014.1 |
| 20260510085625 | 15 | 191 | 0.0 | 0.0 | 0.00 | 0.00 | 0.00 | 95 | 1014.1 |
| 20260510085531 | 15 | 191 | 0.0 | 0.0 | 0.00 | 0.00 | 0.00 | 95 | 1014.1 |
| 20260510085438 | 15 | 191 | 0.0 | 0.0 | 0.00 | 0.00 | 0.00 | 94 | 1014.2 |
| 20260510085324 | 15 | 191 | 0.0 | 0.0 | 0.00 | 0.00 | 0.00 | 94 | 1014.2 |
| 20260510085233 | 15 | 191 | 0.0 | 0.0 | 0.00 | 0.00 | 0.00 | 94 | 1014.1 |
| 20260510085205 | 15 | 191 | 0.0 | 0.0 | 0.00 | 0.00 | 0.00 | 94 | 1014.1 |
| 20260510085114 | 15 | 191 | 0.0 | 0.0 | 0.00 | 0.00 | 0.00 | 94 | 1014.0 |
| 20260510084827 | 15 | 191 | 0.0 | 0.0 | 0.00 | 0.00 | 0.00 | 94 | 1014.0 |
| 20260510084715 | 15 | 191 | 0.0 | 0.0 | 0.00 | 0.00 | 0.00 | 94 | 1014.0 |
| 20260510084622 | 15 | 191 | 0.0 | 0.0 | 0.00 | 0.00 | 0.00 | 94 | 1014.0 |
| 20260510084514 | 15 | 191 | 0.0 | 0.0 | 0.00 | 0.00 | 0.00 | 94 | 1013.9 |
| 20260510084421 | 15 | 191 | 0.0 | 0.0 | 0.00 | 0.00 | 0.00 | 95 | 1013.9 |
| 20260510084329 | 15 | 191 | 0.0 | 0.0 | 0.00 | 0.00 | 0.00 | 95 | 1014.0 |
| 20260510084218 | 15 | 191 | 0.0 | 0.0 | 0.00 | 0.00 | 0.00 | 95 | 1013.8 |
| 20260510084125 | 15 | 191 | 0.0 | 0.0 | 0.00 | 0.00 | 0.00 | 95 | 1013.8 |
| 20260510084018 | 15 | 191 | 0.0 | 3.2 | 0.00 | 0.00 | 0.00 | 95 | 1013.8 |
| 20260510083945 | 15 | 191 | 0.0 | 3.2 | 0.00 | 0.00 | 0.00 | 94 | 1013.8 |
| 20260510083831 | 15 | 191 | 0.0 | 3.2 | 0.00 | 0.00 | 0.00 | 94 | 1013.8 |
| 20260510083719 | 15 | 191 | 0.0 | 3.2 | 0.00 | 0.00 | 0.00 | 94 | 1013.7 |
| 20260510083625 | 15 | 191 | 0.0 | 4.8 | 0.00 | 0.00 | 0.00 | 94 | 1013.7 |
| 20260510083600 | 15 | 191 | 0.0 | 4.8 | 0.00 | 0.00 | 0.00 | 94 | 1013.8 |
| 20260510083313 | 15 | 191 | 1.6 | 4.8 | 0.00 | 0.00 | 0.00 | 94 | 1013.8 |
| 20260510083221 | 15 | 191 | 1.6 | 4.8 | 0.00 | 0.00 | 0.00 | 94 | 1013.8 |
| 20260510083128 | 15 | 191 | 1.6 | 4.8 | 0.00 | 0.00 | 0.00 | 94 | 1013.6 |
| 20260510083017 | 15 | 191 | 1.6 | 4.8 | 0.00 | 0.00 | 0.00 | 94 | 1013.6 |
| 20260510082929 | 15 | 191 | 3.2 | 4.8 | 0.00 | 0.00 | 0.00 | 94 | 1013.6 |
| 20260510082816 | 15 | 191 | 3.2 | 4.8 | 0.00 | 0.00 | 0.00 | 94 | 1013.5 |
| 20260510082724 | 15 | 194 | 3.2 | 4.8 | 0.00 | 0.00 | 0.00 | 94 | 1013.5 |
| 20260510082632 | 15 | 195 | 1.6 | 4.8 | 0.00 | 0.00 | 0.00 | 94 | 1013.5 |
| 20260510082518 | 15 | 211 | 0.0 | 0.0 | 0.00 | 0.00 | 0.00 | 94 | 1013.5 |
| 20260510082446 | 15 | 211 | 0.0 | 0.0 | 0.00 | 0.00 | 0.00 | 94 | 1013.5 |
| 20260510082316 | 15 | 297 | 0.0 | 0.0 | 0.00 | 0.00 | 0.00 | 94 | 1013.5 |
| 20260510082224 | 15 | 297 | 0.0 | 0.0 | 0.00 | 0.00 | 0.00 | 94 | 1013.5 |
| 20260510082123 | 15 | 297 | 0.0 | 0.0 | 0.00 | 0.00 | 0.00 | 94 | 1013.5 |
| 20260510081816 | 15 | 297 | 0.0 | 0.0 | 0.00 | 0.00 | 0.00 | 94 | 1013.5 |
| 20260510081726 | 15 | 297 | 0.0 | 0.0 | 0.00 | 0.00 | 0.00 | 94 | 1013.5 |
| 20260510081613 | 15 | 297 | 0.0 | 0.0 | 0.00 | 0.00 | 0.00 | 94 | 1013.4 |
| 20260510081541 | 15 | 297 | 0.0 | 0.0 | 0.00 | 0.00 | 0.00 | 94 | 1013.4 |
| 20260510081427 | 15 | 297 | 0.0 | 0.0 | 0.00 | 0.00 | 0.00 | 94 | 1013.4 |
| 20260510081314 | 15 | 297 | 0.0 | 0.0 | 0.00 | 0.00 | 0.00 | 94 | 1013.3 |
| 20260510081223 | 15 | 297 | 0.0 | 0.0 | 0.00 | 0.00 | 0.00 | 94 | 1013.3 |
| 20260510081114 | 15 | 297 | 0.0 | 0.0 | 0.00 | 0.00 | 0.00 | 94 | 1013.3 |
| 20260510081022 | 15 | 297 | 0.0 | 0.0 | 0.00 | 0.00 | 0.00 | 94 | 1013.3 |
| 20260510080927 | 15 | 297 | 0.0 | 0.0 | 0.00 | 0.00 | 0.00 | 94 | 1013.3 |
| 20260510080835 | 15 | 297 | 0.0 | 0.0 | 0.00 | 0.00 | 0.00 | 94 | 1013.3 |
| 20260510080721 | 15 | 297 | 0.0 | 0.0 | 0.00 | 0.00 | 0.00 | 94 | 1013.3 |
| 20260510080602 | 15 | 297 | 0.0 | 0.0 | 0.00 | 0.00 | 0.00 | 94 | 1013.3 |
| 20260510080315 | 15 | 297 | 0.0 | 0.0 | 0.00 | 0.00 | 0.00 | 94 | 1013.2 |
| 20260510080222 | 15 | 297 | 0.0 | 0.0 | 0.00 | 0.00 | 0.00 | 94 | 1013.2 |
| 20260510080130 | 15 | 297 | 0.0 | 0.0 | 0.00 | 0.00 | 0.00 | 93 | 1013.3 |
| 20260510080022 | 15 | 297 | 0.0 | 0.0 | 0.00 | 0.00 | 0.00 | 93 | 1013.3 |
| 20260510075929 | 15 | 297 | 0.0 | 0.0 | 0.00 | 0.00 | 0.00 | 93 | 1013.3 |
| 20260510075817 | 15 | 297 | 0.0 | 0.0 | 0.00 | 0.00 | 0.00 | 94 | 1013.3 |
| 20260510075725 | 15 | 297 | 0.0 | 0.0 | 0.00 | 0.00 | 0.00 | 93 | 1013.3 |
| 20260510075612 | 15 | 297 | 0.0 | 0.0 | 0.00 | 0.00 | 0.00 | 94 | 1013.3 |
| 20260510075523 | 15 | 297 | 0.0 | 0.0 | 0.00 | 0.00 | 0.00 | 94 | 1013.3 |
| 20260510075412 | 15 | 297 | 0.0 | 0.0 | 0.00 | 0.00 | 0.00 | 94 | 1013.2 |
| 20260510075320 | 15 | 297 | 0.0 | 0.0 | 0.00 | 0.00 | 0.00 | 94 | 1013.2 |
| 20260510075248 | 15 | 297 | 0.0 | 0.0 | 0.00 | 0.00 | 0.00 | 94 | 1013.2 |
| 20260510075134 | 15 | 297 | 0.0 | 0.0 | 0.00 | 0.00 | 0.00 | 94 | 1013.3 |
| 20260510075048 | 15 | 297 | 0.0 | 0.0 | 0.00 | 0.00 | 0.00 | 94 | 1013.3 |
| 20260510074822 | 15 | 297 | 0.0 | 0.0 | 0.00 | 0.00 | 0.00 | 94 | 1013.2 |
| 20260510074730 | 15 | 297 | 0.0 | 0.0 | 0.00 | 0.00 | 0.00 | 94 | 1013.2 |
| 20260510074638 | 15 | 297 | 0.0 | 0.0 | 0.00 | 0.00 | 0.00 | 93 | 1013.2 |
| 20260510074524 | 15 | 297 | 0.0 | 0.0 | 0.00 | 0.00 | 0.00 | 93 | 1013.2 |
| 20260510074412 | 15 | 297 | 0.0 | 0.0 | 0.00 | 0.00 | 0.00 | 93 | 1013.1 |
| 20260510074324 | 15 | 297 | 0.0 | 0.0 | 0.00 | 0.00 | 0.00 | 93 | 1013.1 |
| 20260510074232 | 15 | 297 | 0.0 | 0.0 | 0.00 | 0.00 | 0.00 | 93 | 1013.2 |
| 20260510074119 | 15 | 297 | 0.0 | 0.0 | 0.00 | 0.00 | 0.00 | 93 | 1013.1 |
| 20260510074026 | 15 | 297 | 0.0 | 0.0 | 0.00 | 0.00 | 0.00 | 93 | 1013.1 |
| 20260510073915 | 15 | 297 | 0.0 | 0.0 | 0.00 | 0.00 | 0.00 | 93 | 1013.2 |
| 20260510073843 | 15 | 297 | 0.0 | 0.0 | 0.00 | 0.00 | 0.00 | 93 | 1013.2 |
| 20260510073712 | 15 | 297 | 0.0 | 0.0 | 0.00 | 0.00 | 0.00 | 93 | 1013.2 |
| 20260510073620 | 15 | 297 | 0.0 | 0.0 | 0.00 | 0.00 | 0.00 | 93 | 1013.2 |
| 20260510073551 | 15 | 297 | 0.0 | 0.0 | 0.00 | 0.00 | 0.00 | 93 | 1013.2 |
| 20260510073325 | 15 | 297 | 0.0 | 0.0 | 0.00 | 0.00 | 0.00 | 93 | 1013.2 |
| 20260510073217 | 15 | 350 | 0.0 | 0.0 | 0.00 | 0.00 | 0.00 | 93 | 1013.2 |
| 20260510073124 | 15 | 350 | 0.0 | 0.0 | 0.00 | 0.00 | 0.00 | 93 | 1013.2 |
| 20260510073012 | 15 | 350 | 0.0 | 0.0 | 0.00 | 0.00 | 0.00 | 93 | 1013.2 |
| 20260510072919 | 15 | 350 | 0.0 | 0.0 | 0.00 | 0.00 | 0.00 | 93 | 1013.2 |
| 20260510072827 | 15 | 350 | 0.0 | 0.0 | 0.00 | 0.00 | 0.00 | 93 | 1013.2 |
| 20260510072714 | 15 | 350 | 0.0 | 0.0 | 0.00 | 0.00 | 0.00 | 93 | 1013.3 |
| 20260510072624 | 15 | 350 | 0.0 | 0.0 | 0.00 | 0.00 | 0.00 | 93 | 1013.3 |
| 20260510072512 | 15 | 350 | 0.0 | 0.0 | 0.00 | 0.00 | 0.00 | 93 | 1013.3 |
| 20260510072421 | 15 | 350 | 0.0 | 0.0 | 0.00 | 0.00 | 0.00 | 93 | 1013.3 |
| 20260510072327 | 15 | 350 | 0.0 | 0.0 | 0.00 | 0.00 | 0.00 | 93 | 1013.2 |
| 20260510072215 | 15 | 350 | 0.0 | 0.0 | 0.00 | 0.00 | 0.00 | 93 | 1013.3 |
| 20260510072143 | 15 | 350 | 0.0 | 0.0 | 0.00 | 0.00 | 0.00 | 93 | 1013.3 |
| 20260510072057 | 15 | 350 | 0.0 | 0.0 | 0.00 | 0.00 | 0.00 | 93 | 1013.2 |
| 20260510071831 | 15 | 350 | 0.0 | 0.0 | 0.00 | 0.00 | 0.00 | 93 | 1013.2 |
| 20260510071718 | 15 | 350 | 0.0 | 0.0 | 0.00 | 0.00 | 0.00 | 93 | 1013.2 |
| 20260510071625 | 15 | 350 | 0.0 | 0.0 | 0.00 | 0.00 | 0.00 | 93 | 1013.2 |
| 20260510071516 | 15 | 350 | 0.0 | 0.0 | 0.00 | 0.00 | 0.00 | 93 | 1013.3 |
| 20260510071423 | 15 | 350 | 0.0 | 0.0 | 0.00 | 0.00 | 0.00 | 93 | 1013.3 |
| 20260510071350 | 15 | 350 | 0.0 | 0.0 | 0.00 | 0.00 | 0.00 | 93 | 1013.3 |
| 20260510071218 | 15 | 350 | 0.0 | 0.0 | 0.00 | 0.00 | 0.00 | 93 | 1013.3 |
| 20260510071126 | 15 | 350 | 0.0 | 0.0 | 0.00 | 0.00 | 0.00 | 93 | 1013.3 |
| 20260510071015 | 15 | 350 | 0.0 | 0.0 | 0.00 | 0.00 | 0.00 | 93 | 1013.2 |
| 20260510070926 | 15 | 350 | 0.0 | 0.0 | 0.00 | 0.00 | 0.00 | 93 | 1013.2 |
| 20260510070833 | 15 | 350 | 0.0 | 0.0 | 0.00 | 0.00 | 0.00 | 93 | 1013.2 |
| 20260510070740 | 15 | 350 | 0.0 | 0.0 | 0.00 | 0.00 | 0.00 | 93 | 1013.3 |
| 20260510070648 | 15 | 350 | 0.0 | 0.0 | 0.00 | 0.00 | 0.00 | 93 | 1013.3 |
| 20260510070557 | 15 | 350 | 0.0 | 0.0 | 0.00 | 0.00 | 0.00 | 93 | 1013.2 |
| 20260510070314 | 15 | 350 | 0.0 | 0.0 | 0.00 | 0.00 | 0.00 | 93 | 1013.2 |
| 20260510070242 | 15 | 350 | 0.0 | 0.0 | 0.00 | 0.00 | 0.00 | 93 | 1013.2 |
| 20260510070128 | 15 | 350 | 0.0 | 0.0 | 0.00 | 0.00 | 0.00 | 93 | 1013.1 |
| 20260510070016 | 15 | 350 | 0.0 | 0.0 | 0.00 | 0.00 | 0.00 | 93 | 1013.2 |
| 20260510065944 | 15 | 350 | 0.0 | 0.0 | 0.00 | 0.00 | 0.00 | 93 | 1013.2 |
| 20260510065850 | 15 | 350 | 0.0 | 0.0 | 0.00 | 0.00 | 0.00 | 93 | 1013.2 |
| 20260510065716 | 15 | 350 | 0.0 | 0.0 | 0.00 | 0.00 | 0.00 | 93 | 1013.1 |
| 20260510065626 | 15 | 350 | 0.0 | 0.0 | 0.00 | 0.00 | 0.00 | 93 | 1013.1 |
| 20260510065514 | 15 | 350 | 0.0 | 0.0 | 0.00 | 0.00 | 0.00 | 92 | 1013.2 |
| 20260510065421 | 15 | 350 | 0.0 | 0.0 | 0.00 | 0.00 | 0.00 | 92 | 1013.2 |
| 20260510065329 | 15 | 350 | 0.0 | 0.0 | 0.00 | 0.00 | 0.00 | 92 | 1013.1 |
| 20260510065216 | 15 | 350 | 0.0 | 0.0 | 0.00 | 0.00 | 0.00 | 92 | 1013.2 |
| 20260510065057 | 16 | 350 | 0.0 | 0.0 | 0.00 | 0.00 | 0.00 | 92 | 1013.2 |
| 20260510064830 | 16 | 350 | 0.0 | 0.0 | 0.00 | 0.00 | 0.00 | 92 | 1013.1 |
| 20260510064717 | 16 | 350 | 0.0 | 0.0 | 0.00 | 0.00 | 0.00 | 92 | 1013.1 |
| 20260510064625 | 16 | 348 | 0.0 | 0.0 | 0.00 | 0.00 | 0.00 | 92 | 1013.1 |
| 20260510064517 | 16 | 238 | 0.0 | 0.0 | 0.00 | 0.00 | 0.00 | 92 | 1013.3 |
| 20260510064425 | 16 | 238 | 0.0 | 0.0 | 0.00 | 0.00 | 0.00 | 92 | 1013.3 |
| 20260510064313 | 16 | 238 | 0.0 | 0.0 | 0.00 | 0.00 | 0.00 | 92 | 1013.1 |
| 20260510064220 | 16 | 238 | 0.0 | 0.0 | 0.00 | 0.00 | 0.00 | 92 | 1013.1 |
| 20260510064127 | 16 | 238 | 0.0 | 0.0 | 0.00 | 0.00 | 0.00 | 92 | 1013.2 |
| 20260510064034 | 16 | 238 | 0.0 | 0.0 | 0.00 | 0.00 | 0.00 | 92 | 1013.2 |
| 20260510063925 | 16 | 238 | 0.0 | 0.0 | 0.00 | 0.00 | 0.00 | 92 | 1013.2 |
| 20260510063852 | 16 | 238 | 0.0 | 0.0 | 0.00 | 0.00 | 0.00 | 92 | 1013.2 |
| 20260510063719 | 16 | 238 | 0.0 | 0.0 | 0.00 | 0.00 | 0.00 | 92 | 1013.3 |
| 20260510063628 | 16 | 238 | 0.0 | 0.0 | 0.00 | 0.00 | 0.00 | 92 | 1013.3 |
| 20260510063558 | 16 | 238 | 0.0 | 0.0 | 0.00 | 0.00 | 0.00 | 92 | 1013.2 |
| 20260510063314 | 16 | 238 | 0.0 | 0.0 | 0.00 | 0.00 | 0.00 | 92 | 1013.3 |
| 20260510063223 | 16 | 238 | 0.0 | 0.0 | 0.00 | 0.00 | 0.00 | 92 | 1013.3 |
| 20260510063130 | 16 | 238 | 0.0 | 0.0 | 0.00 | 0.00 | 0.00 | 92 | 1013.3 |
| 20260510063017 | 16 | 238 | 0.0 | 0.0 | 0.00 | 0.00 | 0.00 | 91 | 1013.3 |
| 20260510062923 | 16 | 238 | 0.0 | 0.0 | 0.00 | 0.00 | 0.00 | 91 | 1013.3 |
| 20260510062814 | 16 | 238 | 0.0 | 0.0 | 0.00 | 0.00 | 0.00 | 91 | 1013.3 |
| 20260510062722 | 16 | 238 | 0.0 | 0.0 | 0.00 | 0.00 | 0.00 | 91 | 1013.3 |
| 20260510062630 | 16 | 238 | 0.0 | 0.0 | 0.00 | 0.00 | 0.00 | 91 | 1013.3 |
| 20260510062517 | 16 | 238 | 0.0 | 0.0 | 0.00 | 0.00 | 0.00 | 91 | 1013.3 |
| 20260510062444 | 16 | 238 | 0.0 | 0.0 | 0.00 | 0.00 | 0.00 | 91 | 1013.3 |
| 20260510062330 | 16 | 238 | 0.0 | 0.0 | 0.00 | 0.00 | 0.00 | 91 | 1013.3 |
| 20260510062222 | 16 | 238 | 0.0 | 0.0 | 0.00 | 0.00 | 0.00 | 91 | 1013.2 |
| 20260510062059 | 16 | 238 | 0.0 | 0.0 | 0.00 | 0.00 | 0.00 | 91 | 1013.3 |
| 20260510061813 | 16 | 138 | 0.0 | 0.0 | 0.00 | 0.00 | 0.00 | 91 | 1013.3 |
| 20260510061720 | 16 | 138 | 0.0 | 0.0 | 0.00 | 0.00 | 0.00 | 91 | 1013.3 |
| 20260510061631 | 16 | 138 | 0.0 | 0.0 | 0.00 | 0.00 | 0.00 | 91 | 1013.3 |
| 20260510061519 | 16 | 138 | 0.0 | 0.0 | 0.00 | 0.00 | 0.00 | 91 | 1013.3 |
| 20260510061427 | 16 | 138 | 0.0 | 0.0 | 0.00 | 0.00 | 0.00 | 91 | 1013.3 |
| 20260510061315 | 16 | 138 | 0.0 | 0.0 | 0.00 | 0.00 | 0.00 | 91 | 1013.3 |
| 20260510061222 | 16 | 138 | 0.0 | 0.0 | 0.00 | 0.00 | 0.00 | 91 | 1013.3 |
| 20260510061113 | 16 | 138 | 0.0 | 0.0 | 0.00 | 0.00 | 0.00 | 91 | 1013.3 |
| 20260510061021 | 16 | 138 | 0.0 | 0.0 | 0.00 | 0.00 | 0.00 | 91 | 1013.3 |
| 20260510060929 | 16 | 138 | 0.0 | 0.0 | 0.00 | 0.00 | 0.00 | 91 | 1013.2 |
| 20260510060836 | 16 | 138 | 0.0 | 0.0 | 0.00 | 0.00 | 0.00 | 91 | 1013.3 |
| 20260510060722 | 17 | 138 | 0.0 | 0.0 | 0.00 | 0.00 | 0.00 | 91 | 1013.3 |
| 20260510060650 | 17 | 138 | 0.0 | 0.0 | 0.00 | 0.00 | 0.00 | 91 | 1013.4 |
| 20260510060625 | 17 | 138 | 0.0 | 0.0 | 0.00 | 0.00 | 0.00 | 91 | 1013.3 |
| 20260510060317 | 17 | 138 | 0.0 | 0.0 | 0.00 | 0.00 | 0.00 | 92 | 1013.4 |
| 20260510060225 | 17 | 138 | 0.0 | 0.0 | 0.00 | 0.00 | 0.00 | 92 | 1013.4 |
| 20260510060113 | 17 | 138 | 0.0 | 0.0 | 0.00 | 0.00 | 0.00 | 92 | 1013.5 |
| 20260510060020 | 17 | 138 | 0.0 | 0.0 | 0.00 | 0.00 | 0.00 | 92 | 1013.5 |
| 20260510055931 | 17 | 138 | 0.0 | 0.0 | 0.00 | 0.00 | 0.00 | 92 | 1013.4 |
| 20260510055818 | 17 | 138 | 0.0 | 0.0 | 0.00 | 0.00 | 0.00 | 92 | 1013.4 |
| 20260510055745 | 17 | 138 | 0.0 | 0.0 | 0.00 | 0.00 | 0.00 | 92 | 1013.4 |
| 20260510055613 | 17 | 138 | 0.0 | 0.0 | 0.00 | 0.00 | 0.00 | 92 | 1013.4 |
| 20260510055520 | 17 | 138 | 0.0 | 0.0 | 0.00 | 0.00 | 0.00 | 91 | 1013.4 |
| 20260510055447 | 17 | 138 | 0.0 | 0.0 | 0.00 | 0.00 | 0.00 | 91 | 1013.5 |
| 20260510055334 | 17 | 138 | 0.0 | 0.0 | 0.00 | 0.00 | 0.00 | 91 | 1013.5 |
| 20260510055226 | 17 | 138 | 0.0 | 0.0 | 0.00 | 0.00 | 0.00 | 91 | 1013.5 |
| 20260510055154 | 17 | 138 | 0.0 | 0.0 | 0.00 | 0.00 | 0.00 | 91 | 1013.4 |
| 20260510055104 | 17 | 138 | 0.0 | 0.0 | 0.00 | 0.00 | 0.00 | 91 | 1013.4 |
| 20260510054837 | 17 | 138 | 0.0 | 0.0 | 0.00 | 0.00 | 0.00 | 92 | 1013.5 |
| 20260510054723 | 17 | 138 | 0.0 | 0.0 | 0.00 | 0.00 | 0.00 | 92 | 1013.5 |
| 20260510054615 | 17 | 138 | 0.0 | 0.0 | 0.00 | 0.00 | 0.00 | 91 | 1013.4 |
| 20260510054522 | 17 | 138 | 0.0 | 0.0 | 0.00 | 0.00 | 0.00 | 91 | 1013.4 |
| 20260510054430 | 17 | 138 | 0.0 | 0.0 | 0.00 | 0.00 | 0.00 | 91 | 1013.5 |
| 20260510054317 | 17 | 138 | 0.0 | 0.0 | 0.00 | 0.00 | 0.00 | 91 | 1013.4 |
| 20260510054224 | 17 | 138 | 0.0 | 0.0 | 0.00 | 0.00 | 0.00 | 91 | 1013.4 |
| 20260510054132 | 17 | 138 | 0.0 | 0.0 | 0.00 | 0.00 | 0.00 | 91 | 1013.5 |
| 20260510054023 | 17 | 138 | 0.0 | 0.0 | 0.00 | 0.00 | 0.00 | 91 | 1013.5 |
| 20260510053930 | 17 | 138 | 0.0 | 0.0 | 0.00 | 0.00 | 0.00 | 91 | 1013.4 |
| 20260510053818 | 17 | 138 | 0.0 | 0.0 | 0.00 | 0.00 | 0.00 | 91 | 1013.4 |
| 20260510053725 | 17 | 138 | 0.0 | 0.0 | 0.00 | 0.00 | 0.00 | 91 | 1013.4 |
| 20260510053612 | 17 | 138 | 0.0 | 0.0 | 0.00 | 0.00 | 0.00 | 91 | 1013.5 |
| 20260510053547 | 17 | 138 | 0.0 | 0.0 | 0.00 | 0.00 | 0.00 | 91 | 1013.5 |
| 20260510053321 | 17 | 138 | 0.0 | 0.0 | 0.00 | 0.00 | 0.00 | 91 | 1013.4 |
| 20260510053228 | 17 | 138 | 0.0 | 0.0 | 0.00 | 0.00 | 0.00 | 91 | 1013.4 |
| 20260510053134 | 17 | 138 | 0.0 | 0.0 | 0.00 | 0.00 | 0.00 | 91 | 1013.4 |
| 20260510053021 | 17 | 138 | 0.0 | 0.0 | 0.00 | 0.00 | 0.00 | 91 | 1013.5 |
| 20260510052934 | 17 | 138 | 0.0 | 0.0 | 0.00 | 0.00 | 0.00 | 91 | 1013.5 |
| 20260510052820 | 17 | 138 | 0.0 | 0.0 | 0.00 | 0.00 | 0.00 | 91 | 1013.5 |
| 20260510052727 | 17 | 138 | 0.0 | 0.0 | 0.00 | 0.00 | 0.00 | 91 | 1013.5 |
| 20260510052615 | 17 | 138 | 0.0 | 0.0 | 0.00 | 0.00 | 0.00 | 91 | 1013.5 |
| 20260510052522 | 17 | 138 | 0.0 | 0.0 | 0.00 | 0.00 | 0.00 | 91 | 1013.4 |
| 20260510052429 | 17 | 138 | 0.0 | 0.0 | 0.00 | 0.00 | 0.00 | 91 | 1013.4 |
| 20260510052321 | 17 | 175 | 0.0 | 0.0 | 0.00 | 0.00 | 0.00 | 91 | 1013.5 |
| 20260510052229 | 17 | 175 | 0.0 | 0.0 | 0.00 | 0.00 | 0.00 | 91 | 1013.5 |
| 20260510052118 | 17 | 175 | 0.0 | 0.0 | 0.00 | 0.00 | 0.00 | 91 | 1013.5 |
| 20260510052049 | 17 | 175 | 0.0 | 0.0 | 0.00 | 0.00 | 0.00 | 91 | 1013.5 |
| 20260510051828 | 17 | 175 | 0.0 | 0.0 | 0.00 | 0.00 | 0.00 | 91 | 1013.5 |
| 20260510051715 | 17 | 175 | 0.0 | 0.0 | 0.00 | 0.00 | 0.00 | 91 | 1013.4 |
| 20260510051622 | 17 | 175 | 0.0 | 0.0 | 0.00 | 0.00 | 0.00 | 91 | 1013.4 |
| 20260510051529 | 17 | 175 | 0.0 | 0.0 | 0.00 | 0.00 | 0.00 | 91 | 1013.5 |
| 20260510051416 | 17 | 175 | 0.0 | 0.0 | 0.00 | 0.00 | 0.00 | 91 | 1013.5 |
| 20260510051323 | 17 | 175 | 0.0 | 0.0 | 0.00 | 0.00 | 0.00 | 91 | 1013.5 |
| 20260510051214 | 17 | 175 | 0.0 | 0.0 | 0.00 | 0.00 | 0.00 | 91 | 1013.4 |
| 20260510051121 | 17 | 175 | 0.0 | 0.0 | 0.00 | 0.00 | 0.00 | 91 | 1013.3 |
| 20260510051029 | 17 | 175 | 0.0 | 0.0 | 0.00 | 0.00 | 0.00 | 91 | 1013.3 |
| 20260510050916 | 17 | 175 | 0.0 | 0.0 | 0.00 | 0.00 | 0.00 | 91 | 1013.4 |
| 20260510050823 | 17 | 175 | 0.0 | 0.0 | 0.00 | 0.00 | 0.00 | 91 | 1013.4 |
| 20260510050714 | 17 | 175 | 0.0 | 0.0 | 0.00 | 0.00 | 0.00 | 91 | 1013.4 |
| 20260510050622 | 17 | 175 | 0.0 | 0.0 | 0.00 | 0.00 | 0.00 | 91 | 1013.4 |
| 20260510050553 | 17 | 175 | 0.0 | 0.0 | 0.00 | 0.00 | 0.00 | 90 | 1013.4 |
| 20260510050326 | 17 | 175 | 0.0 | 0.0 | 0.00 | 0.00 | 0.00 | 89 | 1013.3 |
| 20260510050235 | 17 | 175 | 0.0 | 0.0 | 0.00 | 0.00 | 0.00 | 89 | 1013.3 |
| 20260510050145 | 17 | 175 | 0.0 | 0.0 | 0.00 | 0.00 | 0.00 | 89 | 1013.3 |
| 20260510050032 | 17 | 175 | 0.0 | 0.0 | 0.00 | 0.00 | 0.00 | 89 | 1013.4 |
| 20260510045939 | 17 | 175 | 0.0 | 0.0 | 0.00 | 0.00 | 0.00 | 89 | 1013.3 |
| 20260510045824 | 17 | 175 | 0.0 | 0.0 | 0.00 | 0.00 | 0.00 | 89 | 1013.3 |
| 20260510045752 | 17 | 175 | 0.0 | 0.0 | 0.00 | 0.00 | 0.00 | 89 | 1013.4 |
| 20260510045618 | 17 | 175 | 0.0 | 0.0 | 0.00 | 0.00 | 0.00 | 89 | 1013.3 |
| 20260510045526 | 17 | 175 | 0.0 | 0.0 | 0.00 | 0.00 | 0.00 | 89 | 1013.3 |
| 20260510045418 | 17 | 175 | 0.0 | 0.0 | 0.00 | 0.00 | 0.00 | 89 | 1013.3 |
| 20260510045326 | 17 | 175 | 0.0 | 0.0 | 0.00 | 0.00 | 0.00 | 89 | 1013.3 |
| 20260510045213 | 17 | 175 | 0.0 | 0.0 | 0.00 | 0.00 | 0.00 | 89 | 1013.3 |
| 20260510045121 | 17 | 175 | 0.0 | 0.0 | 0.00 | 0.00 | 0.00 | 88 | 1013.4 |
| 20260510045056 | 17 | 175 | 0.0 | 0.0 | 0.00 | 0.00 | 0.00 | 89 | 1013.4 |
| 20260510044830 | 17 | 175 | 0.0 | 0.0 | 0.00 | 0.00 | 0.00 | 89 | 1013.4 |
| 20260510044716 | 17 | 175 | 0.0 | 0.0 | 0.00 | 0.00 | 0.00 | 89 | 1013.5 |
| 20260510044624 | 17 | 175 | 0.0 | 0.0 | 0.00 | 0.00 | 0.00 | 89 | 1013.5 |
| 20260510044531 | 17 | 175 | 0.0 | 0.0 | 0.00 | 0.00 | 0.00 | 89 | 1013.5 |
| 20260510044439 | 18 | 175 | 0.0 | 0.0 | 0.00 | 0.00 | 0.00 | 89 | 1013.4 |
| 20260510044328 | 18 | 175 | 0.0 | 0.0 | 0.00 | 0.00 | 0.00 | 89 | 1013.4 |
| 20260510044216 | 18 | 175 | 0.0 | 0.0 | 0.00 | 0.00 | 0.00 | 89 | 1013.5 |
| 20260510044122 | 18 | 175 | 0.0 | 0.0 | 0.00 | 0.00 | 0.00 | 89 | 1013.5 |
| 20260510044031 | 18 | 175 | 0.0 | 0.0 | 0.00 | 0.00 | 0.00 | 89 | 1013.4 |
| 20260510043939 | 18 | 175 | 0.0 | 0.0 | 0.00 | 0.00 | 0.00 | 89 | 1013.4 |
| 20260510043827 | 18 | 175 | 0.0 | 0.0 | 0.00 | 0.00 | 0.00 | 88 | 1013.4 |
| 20260510043718 | 18 | 175 | 0.0 | 0.0 | 0.00 | 0.00 | 0.00 | 88 | 1013.5 |
| 20260510043645 | 18 | 175 | 0.0 | 0.0 | 0.00 | 0.00 | 0.00 | 88 | 1013.5 |
| 20260510043554 | 18 | 175 | 0.0 | 0.0 | 0.00 | 0.00 | 0.00 | 88 | 1013.5 |
| 20260510043348 | 18 | 175 | 0.0 | 0.0 | 0.00 | 0.00 | 0.00 | 88 | 1013.5 |
| 20260510043233 | 18 | 175 | 0.0 | 0.0 | 0.00 | 0.00 | 0.00 | 88 | 1013.6 |
| 20260510043119 | 18 | 175 | 0.0 | 0.0 | 0.00 | 0.00 | 0.00 | 88 | 1013.6 |
| 20260510043029 | 18 | 175 | 0.0 | 0.0 | 0.00 | 0.00 | 0.00 | 88 | 1013.6 |
| 20260510042916 | 18 | 175 | 0.0 | 0.0 | 0.00 | 0.00 | 0.00 | 89 | 1013.7 |
| 20260510042824 | 18 | 175 | 0.0 | 0.0 | 0.00 | 0.00 | 0.00 | 89 | 1013.7 |
| 20260510042751 | 18 | 175 | 0.0 | 0.0 | 0.00 | 0.00 | 0.00 | 88 | 1013.6 |
| 20260510042617 | 18 | 175 | 0.0 | 0.0 | 0.00 | 0.00 | 0.00 | 88 | 1013.6 |
| 20260510042525 | 18 | 175 | 0.0 | 0.0 | 0.00 | 0.00 | 0.00 | 88 | 1013.6 |
| 20260510042435 | 18 | 175 | 0.0 | 0.0 | 0.00 | 0.00 | 0.00 | 88 | 1013.7 |
| 20260510042321 | 18 | 175 | 0.0 | 0.0 | 0.00 | 0.00 | 0.00 | 88 | 1013.6 |
| 20260510042228 | 18 | 175 | 0.0 | 0.0 | 0.00 | 0.00 | 0.00 | 88 | 1013.6 |
| 20260510042114 | 18 | 175 | 0.0 | 0.0 | 0.00 | 0.00 | 0.00 | 88 | 1013.7 |
| 20260510042050 | 18 | 175 | 0.0 | 0.0 | 0.00 | 0.00 | 0.00 | 88 | 1013.7 |
| 20260510041823 | 18 | 175 | 0.0 | 0.0 | 0.00 | 0.00 | 0.00 | 88 | 1013.6 |
| 20260510041730 | 18 | 175 | 0.0 | 0.0 | 0.00 | 0.00 | 0.00 | 88 | 1013.7 |
| 20260510041617 | 18 | 175 | 0.0 | 0.0 | 0.00 | 0.00 | 0.00 | 88 | 1013.7 |
| 20260510041526 | 18 | 175 | 0.0 | 0.0 | 0.00 | 0.00 | 0.00 | 88 | 1013.7 |
| 20260510041414 | 18 | 175 | 0.0 | 0.0 | 0.00 | 0.00 | 0.00 | 89 | 1013.7 |
| 20260510041326 | 18 | 175 | 0.0 | 0.0 | 0.00 | 0.00 | 0.00 | 89 | 1013.7 |
| 20260510041214 | 18 | 175 | 0.0 | 0.0 | 0.00 | 0.00 | 0.00 | 89 | 1013.7 |
| 20260510041123 | 18 | 175 | 0.0 | 0.0 | 0.00 | 0.00 | 0.00 | 88 | 1013.7 |
| 20260510041030 | 18 | 175 | 0.0 | 0.0 | 0.00 | 0.00 | 0.00 | 88 | 1013.7 |
| 20260510040918 | 18 | 175 | 0.0 | 0.0 | 0.00 | 0.00 | 0.00 | 88 | 1013.6 |
| 20260510040829 | 18 | 175 | 0.0 | 0.0 | 0.00 | 0.00 | 0.00 | 88 | 1013.6 |
| 20260510040718 | 18 | 175 | 0.0 | 0.0 | 0.00 | 0.00 | 0.00 | 88 | 1013.6 |
| 20260510040624 | 18 | 175 | 0.0 | 0.0 | 0.00 | 0.00 | 0.00 | 88 | 1013.6 |
| 20260510040556 | 18 | 175 | 0.0 | 0.0 | 0.00 | 0.00 | 0.00 | 88 | 1013.5 |
| 20260510040349 | 18 | 175 | 0.0 | 0.0 | 0.00 | 0.00 | 0.00 | 88 | 1013.6 |
| 20260510040220 | 18 | 175 | 0.0 | 0.0 | 0.00 | 0.00 | 0.00 | 88 | 1013.6 |
| 20260510040149 | 18 | 175 | 0.0 | 0.0 | 0.00 | 0.00 | 0.00 | 88 | 1013.6 |
| 20260510040017 | 18 | 175 | 0.0 | 0.0 | 0.00 | 0.00 | 0.00 | 88 | 1013.7 |
| 20260510035923 | 18 | 175 | 0.0 | 0.0 | 0.00 | 0.00 | 0.00 | 87 | 1013.7 |
| 20260510035812 | 18 | 163 | 0.0 | 0.0 | 0.00 | 0.00 | 0.00 | 87 | 1013.7 |
| 20260510035720 | 18 | 163 | 0.0 | 1.6 | 0.00 | 0.00 | 0.00 | 87 | 1013.5 |
| 20260510035612 | 18 | 163 | 0.0 | 1.6 | 0.00 | 0.00 | 0.00 | 87 | 1013.5 |
| 20260510035518 | 18 | 163 | 0.0 | 1.6 | 0.00 | 0.00 | 0.00 | 87 | 1013.6 |
| 20260510035427 | 18 | 163 | 0.0 | 1.6 | 0.00 | 0.00 | 0.00 | 87 | 1013.6 |
| 20260510035316 | 18 | 163 | 0.0 | 1.6 | 0.00 | 0.00 | 0.00 | 87 | 1013.5 |
| 20260510035223 | 18 | 163 | 0.0 | 1.6 | 0.00 | 0.00 | 0.00 | 87 | 1013.5 |
| 20260510035115 | 18 | 163 | 0.0 | 1.6 | 0.00 | 0.00 | 0.00 | 87 | 1013.5 |
| 20260510035046 | 18 | 163 | 0.0 | 1.6 | 0.00 | 0.00 | 0.00 | 87 | 1013.5 |
| 20260510034819 | 18 | 163 | 0.0 | 1.6 | 0.00 | 0.00 | 0.00 | 87 | 1013.6 |
| 20260510034748 | 18 | 163 | 0.0 | 1.6 | 0.00 | 0.00 | 0.00 | 87 | 1013.6 |
| 20260510034633 | 18 | 163 | 0.0 | 1.6 | 0.00 | 0.00 | 0.00 | 86 | 1013.5 |
| 20260510034520 | 18 | 163 | 0.0 | 1.6 | 0.00 | 0.00 | 0.00 | 86 | 1013.6 |
| 20260510034431 | 18 | 163 | 0.0 | 3.2 | 0.00 | 0.00 | 0.00 | 86 | 1013.6 |
| 20260510034318 | 18 | 163 | 0.0 | 3.2 | 0.00 | 0.00 | 0.00 | 86 | 1013.5 |
| 20260510034245 | 18 | 163 | 0.0 | 3.2 | 0.00 | 0.00 | 0.00 | 86 | 1013.5 |
| 20260510034131 | 18 | 163 | 0.0 | 3.2 | 0.00 | 0.00 | 0.00 | 86 | 1013.5 |
| 20260510034018 | 18 | 182 | 0.0 | 3.2 | 0.00 | 0.00 | 0.00 | 86 | 1013.5 |
| 20260510033925 | 18 | 182 | 0.0 | 3.2 | 0.00 | 0.00 | 0.00 | 86 | 1013.5 |
| 20260510033817 | 18 | 182 | 0.0 | 4.8 | 0.00 | 0.00 | 0.00 | 86 | 1013.5 |
| 20260510033725 | 18 | 182 | 0.0 | 4.8 | 0.00 | 0.00 | 0.00 | 86 | 1013.5 |
| 20260510033633 | 18 | 172 | 1.6 | 4.8 | 0.00 | 0.00 | 0.00 | 86 | 1013.5 |
| 20260510033603 | 18 | 172 | 1.6 | 4.8 | 0.00 | 0.00 | 0.00 | 86 | 1013.5 |
| 20260510033322 | 19 | 197 | 0.0 | 4.8 | 0.00 | 0.00 | 0.00 | 86 | 1013.5 |
| 20260510033229 | 19 | 197 | 0.0 | 4.8 | 0.00 | 0.00 | 0.00 | 86 | 1013.5 |
| 20260510033116 | 19 | 197 | 0.0 | 4.8 | 0.00 | 0.00 | 0.00 | 86 | 1013.6 |
| 20260510033023 | 19 | 197 | 1.6 | 4.8 | 0.00 | 0.00 | 0.00 | 86 | 1013.6 |
| 20260510032930 | 19 | 197 | 1.6 | 4.8 | 0.00 | 0.00 | 0.00 | 86 | 1013.7 |
| 20260510032822 | 19 | 205 | 1.6 | 4.8 | 0.00 | 0.00 | 0.00 | 86 | 1013.6 |
| 20260510032730 | 19 | 192 | 1.6 | 6.4 | 0.00 | 0.00 | 0.00 | 86 | 1013.6 |
| 20260510032637 | 19 | 191 | 3.2 | 6.4 | 0.00 | 0.00 | 0.00 | 86 | 1013.6 |
| 20260510032522 | 19 | 188 | 3.2 | 6.4 | 0.00 | 0.00 | 0.00 | 86 | 1013.6 |
| 20260510032430 | 19 | 215 | 3.2 | 6.4 | 0.00 | 0.00 | 0.00 | 85 | 1013.6 |
| 20260510032316 | 19 | 192 | 1.6 | 6.4 | 0.00 | 0.00 | 0.00 | 85 | 1013.5 |
| 20260510032227 | 19 | 209 | 3.2 | 6.4 | 0.00 | 0.00 | 0.00 | 85 | 1013.5 |
| 20260510032135 | 19 | 201 | 3.2 | 6.4 | 0.00 | 0.00 | 0.00 | 85 | 1013.5 |
| 20260510032106 | 19 | 195 | 3.2 | 6.4 | 0.00 | 0.00 | 0.00 | 85 | 1013.6 |
| 20260510031819 | 19 | 206 | 3.2 | 8.0 | 0.00 | 0.00 | 0.00 | 85 | 1013.6 |
| 20260510031726 | 19 | 206 | 3.2 | 8.0 | 0.00 | 0.00 | 0.00 | 85 | 1013.6 |
| 20260510031618 | 19 | 206 | 3.2 | 8.0 | 0.00 | 0.00 | 0.00 | 85 | 1013.5 |
| 20260510031525 | 19 | 200 | 3.2 | 8.0 | 0.00 | 0.00 | 0.00 | 85 | 1013.5 |
| 20260510031414 | 19 | 202 | 4.8 | 8.0 | 0.00 | 0.00 | 0.00 | 85 | 1013.7 |
| 20260510031322 | 19 | 174 | 4.8 | 8.0 | 0.00 | 0.00 | 0.00 | 85 | 1013.7 |
| 20260510031228 | 19 | 180 | 3.2 | 8.0 | 0.00 | 0.00 | 0.00 | 85 | 1013.5 |
| 20260510031119 | 19 | 188 | 3.2 | 8.0 | 0.00 | 0.00 | 0.00 | 85 | 1013.5 |
| 20260510031025 | 19 | 203 | 3.2 | 6.4 | 0.00 | 0.00 | 0.00 | 85 | 1013.5 |
| 20260510030953 | 19 | 234 | 3.2 | 6.4 | 0.00 | 0.00 | 0.00 | 85 | 1013.6 |
| 20260510030817 | 19 | 215 | 4.8 | 6.4 | 0.00 | 0.00 | 0.00 | 85 | 1013.6 |
| 20260510030724 | 19 | 192 | 3.2 | 6.4 | 0.00 | 0.00 | 0.00 | 84 | 1013.6 |
| 20260510030613 | 19 | 194 | 3.2 | 4.8 | 0.00 | 0.00 | 0.00 | 84 | 1013.4 |
| 20260510030547 | 19 | 213 | 1.6 | 4.8 | 0.00 | 0.00 | 0.00 | 84 | 1013.4 |
| 20260510030341 | 19 | 205 | 3.2 | 8.0 | 0.00 | 0.00 | 0.00 | 84 | 1013.5 |
| 20260510030247 | 19 | 227 | 3.2 | 8.0 | 0.00 | 0.00 | 0.00 | 84 | 1013.5 |
| 20260510030112 | 19 | 216 | 1.6 | 8.0 | 0.00 | 0.00 | 0.00 | 84 | 1013.5 |
| 20260510030040 | 20 | 190 | 1.6 | 8.0 | 0.00 | 0.00 | 0.00 | 84 | 1013.5 |
| 20260510025948 | 20 | 190 | 1.6 | 8.0 | 0.00 | 0.00 | 0.00 | 84 | 1013.5 |
| 20260510025818 | 20 | 196 | 3.2 | 8.0 | 0.00 | 0.00 | 0.00 | 84 | 1013.5 |
| 20260510025746 | 20 | 217 | 4.8 | 8.0 | 0.00 | 0.00 | 0.00 | 84 | 1013.5 |
| 20260510025613 | 20 | 215 | 4.8 | 8.0 | 0.00 | 0.00 | 0.00 | 84 | 1013.4 |
| 20260510025521 | 20 | 196 | 4.8 | 8.0 | 0.00 | 0.00 | 0.00 | 84 | 1013.4 |
| 20260510025427 | 20 | 202 | 4.8 | 8.0 | 0.00 | 0.00 | 0.00 | 84 | 1013.4 |
| 20260510025314 | 20 | 198 | 4.8 | 8.0 | 0.00 | 0.00 | 0.00 | 84 | 1013.3 |
| 20260510025227 | 20 | 198 | 4.8 | 8.0 | 0.00 | 0.00 | 0.00 | 83 | 1013.3 |
| 20260510025154 | 20 | 205 | 3.2 | 8.0 | 0.00 | 0.00 | 0.00 | 83 | 1013.2 |
| 20260510025102 | 20 | 205 | 4.8 | 8.0 | 0.00 | 0.00 | 0.00 | 83 | 1013.2 |
| 20260510024816 | 20 | 201 | 6.4 | 9.7 | 0.00 | 0.00 | 0.00 | 83 | 1013.2 |
| 20260510024722 | 20 | 221 | 6.4 | 9.7 | 0.00 | 0.00 | 0.00 | 83 | 1013.2 |
| 20260510024614 | 20 | 190 | 4.8 | 9.7 | 0.00 | 0.00 | 0.00 | 83 | 1013.2 |
| 20260510024522 | 20 | 232 | 4.8 | 9.7 | 0.00 | 0.00 | 0.00 | 83 | 1013.2 |
| 20260510024429 | 20 | 163 | 4.8 | 9.7 | 0.00 | 0.00 | 0.00 | 83 | 1013.2 |
| 20260510024316 | 20 | 205 | 4.8 | 9.7 | 0.00 | 0.00 | 0.00 | 83 | 1013.2 |
| 20260510024223 | 20 | 188 | 6.4 | 9.7 | 0.00 | 0.00 | 0.00 | 83 | 1013.2 |
| 20260510024116 | 20 | 202 | 4.8 | 9.7 | 0.00 | 0.00 | 0.00 | 83 | 1013.2 |
| 20260510024022 | 20 | 188 | 4.8 | 9.7 | 0.00 | 0.00 | 0.00 | 83 | 1013.2 |
| 20260510023931 | 20 | 205 | 4.8 | 9.7 | 0.00 | 0.00 | 0.00 | 83 | 1013.2 |
| 20260510023838 | 20 | 199 | 6.4 | 9.7 | 0.00 | 0.00 | 0.00 | 83 | 1013.1 |
| 20260510023724 | 20 | 200 | 6.4 | 9.7 | 0.00 | 0.00 | 0.00 | 82 | 1013.1 |
| 20260510023612 | 20 | 173 | 4.8 | 9.7 | 0.00 | 0.00 | 0.00 | 82 | 1013.1 |
| 20260510023546 | 20 | 192 | 4.8 | 9.7 | 0.00 | 0.00 | 0.00 | 82 | 1013.1 |
| 20260510023320 | 20 | 192 | 3.2 | 8.0 | 0.00 | 0.00 | 0.00 | 82 | 1013.1 |
| 20260510023226 | 20 | 175 | 4.8 | 8.0 | 0.00 | 0.00 | 0.00 | 82 | 1013.1 |
| 20260510023114 | 20 | 217 | 4.8 | 6.4 | 0.00 | 0.00 | 0.00 | 82 | 1013.1 |
| 20260510023021 | 20 | 173 | 4.8 | 6.4 | 0.00 | 0.00 | 0.00 | 82 | 1013.0 |
| 20260510022931 | 20 | 189 | 3.2 | 6.4 | 0.00 | 0.00 | 0.00 | 81 | 1013.0 |
| 20260510022819 | 20 | 185 | 4.8 | 6.4 | 0.00 | 0.00 | 0.00 | 81 | 1012.9 |
| 20260510022727 | 20 | 198 | 4.8 | 6.4 | 0.00 | 0.00 | 0.00 | 81 | 1012.9 |
| 20260510022615 | 20 | 176 | 3.2 | 6.4 | 0.00 | 0.00 | 0.00 | 81 | 1012.9 |
| 20260510022543 | 20 | 202 | 3.2 | 6.4 | 0.00 | 0.00 | 0.00 | 81 | 1012.9 |
| 20260510022414 | 20 | 212 | 3.2 | 6.4 | 0.00 | 0.00 | 0.00 | 81 | 1012.9 |
| 20260510022322 | 20 | 200 | 3.2 | 6.4 | 0.00 | 0.00 | 0.00 | 81 | 1012.9 |
| 20260510022228 | 20 | 169 | 3.2 | 6.4 | 0.00 | 0.00 | 0.00 | 81 | 1012.9 |
| 20260510022116 | 20 | 187 | 3.2 | 6.4 | 0.00 | 0.00 | 0.00 | 81 | 1012.8 |
| 20260510022046 | 20 | 178 | 1.6 | 4.8 | 0.00 | 0.00 | 0.00 | 81 | 1012.8 |
| 20260510021824 | 20 | 180 | 0.0 | 4.8 | 0.00 | 0.00 | 0.00 | 80 | 1012.7 |
| 20260510021712 | 20 | 181 | 1.6 | 4.8 | 0.00 | 0.00 | 0.00 | 80 | 1012.7 |
| 20260510021619 | 20 | 181 | 1.6 | 4.8 | 0.00 | 0.00 | 0.00 | 80 | 1012.7 |
| 20260510021526 | 20 | 184 | 1.6 | 4.8 | 0.00 | 0.00 | 0.00 | 80 | 1012.7 |
| 20260510021414 | 20 | 174 | 1.6 | 4.8 | 0.00 | 0.00 | 0.00 | 80 | 1012.7 |
| 20260510021325 | 20 | 187 | 1.6 | 4.8 | 0.00 | 0.00 | 0.00 | 80 | 1012.7 |
| 20260510021212 | 20 | 175 | 1.6 | 4.8 | 0.00 | 0.00 | 0.00 | 80 | 1012.6 |
| 20260510021140 | 20 | 180 | 1.6 | 4.8 | 0.00 | 0.00 | 0.00 | 79 | 1012.5 |
| 20260510021026 | 20 | 149 | 1.6 | 4.8 | 0.00 | 0.00 | 0.00 | 79 | 1012.5 |
| 20260510020914 | 20 | 149 | 0.0 | 4.8 | 0.00 | 0.00 | 0.00 | 79 | 1012.4 |
| 20260510020821 | 20 | 149 | 0.0 | 4.8 | 0.00 | 0.00 | 0.00 | 79 | 1012.5 |
| 20260510020733 | 20 | 137 | 1.6 | 4.8 | 0.00 | 0.00 | 0.00 | 79 | 1012.5 |
| 20260510020701 | 20 | 137 | 1.6 | 4.8 | 0.00 | 0.00 | 0.00 | 79 | 1012.4 |
| 20260510020612 | 20 | 137 | 1.6 | 4.8 | 0.00 | 0.00 | 0.00 | 79 | 1012.4 |
| 20260510020325 | 21 | 184 | 1.6 | 6.4 | 0.00 | 0.00 | 0.00 | 79 | 1012.3 |
| 20260510020213 | 21 | 178 | 0.0 | 6.4 | 0.00 | 0.00 | 0.00 | 79 | 1012.3 |
| 20260510020125 | 21 | 178 | 0.0 | 6.4 | 0.00 | 0.00 | 0.00 | 79 | 1012.3 |
| 20260510020012 | 21 | 178 | 1.6 | 6.4 | 0.00 | 0.00 | 0.00 | 79 | 1012.3 |
| 20260510015921 | 21 | 178 | 1.6 | 6.4 | 0.00 | 0.00 | 0.00 | 79 | 1012.2 |
| 20260510015829 | 21 | 192 | 3.2 | 6.4 | 0.00 | 0.00 | 0.00 | 79 | 1012.2 |
| 20260510015737 | 21 | 201 | 3.2 | 6.4 | 0.00 | 0.00 | 0.00 | 79 | 1012.2 |
| 20260510015623 | 21 | 184 | 3.2 | 8.0 | 0.00 | 0.00 | 0.00 | 78 | 1012.2 |
| 20260510015514 | 21 | 202 | 3.2 | 8.0 | 0.00 | 0.00 | 0.00 | 78 | 1012.2 |
| 20260510015421 | 21 | 173 | 3.2 | 8.0 | 0.00 | 0.00 | 0.00 | 78 | 1012.3 |
| 20260510015329 | 21 | 200 | 1.6 | 8.0 | 0.00 | 0.00 | 0.00 | 78 | 1012.3 |
| 20260510015216 | 21 | 207 | 1.6 | 8.0 | 0.00 | 0.00 | 0.00 | 78 | 1012.1 |
| 20260510015124 | 21 | 175 | 3.2 | 8.0 | 0.00 | 0.00 | 0.00 | 78 | 1012.1 |
| 20260510015058 | 21 | 175 | 3.2 | 8.0 | 0.00 | 0.00 | 0.00 | 78 | 1012.2 |
| 20260510014812 | 21 | 190 | 3.2 | 11.3 | 0.00 | 0.00 | 0.00 | 78 | 1012.1 |
| 20260510014739 | 21 | 170 | 3.2 | 11.3 | 0.00 | 0.00 | 0.00 | 78 | 1012.0 |
| 20260510014625 | 21 | 208 | 3.2 | 11.3 | 0.00 | 0.00 | 0.00 | 78 | 1012.0 |
| 20260510014533 | 21 | 153 | 3.2 | 11.3 | 0.00 | 0.00 | 0.00 | 78 | 1012.0 |
| 20260510014420 | 21 | 180 | 4.8 | 11.3 | 0.00 | 0.00 | 0.00 | 78 | 1011.9 |
| 20260510014351 | 21 | 141 | 4.8 | 11.3 | 0.00 | 0.00 | 0.00 | 78 | 1011.9 |
| 20260510014218 | 21 | 157 | 4.8 | 11.3 | 0.00 | 0.00 | 0.00 | 78 | 1012.0 |
| 20260510014124 | 21 | 153 | 6.4 | 11.3 | 0.00 | 0.00 | 0.00 | 78 | 1012.0 |
| 20260510014012 | 21 | 141 | 4.8 | 8.0 | 0.00 | 0.00 | 0.00 | 78 | 1012.0 |
| 20260510013918 | 21 | 142 | 4.8 | 8.0 | 0.00 | 0.00 | 0.00 | 78 | 1011.9 |
| 20260510013827 | 21 | 130 | 4.8 | 8.0 | 0.00 | 0.00 | 0.00 | 78 | 1011.9 |
| 20260510013739 | 21 | 153 | 4.8 | 8.0 | 0.00 | 0.00 | 0.00 | 78 | 1011.9 |
| 20260510013706 | 21 | 141 | 4.8 | 8.0 | 0.00 | 0.00 | 0.00 | 78 | 1011.8 |
| 20260510013616 | 21 | 157 | 4.8 | 9.7 | 0.00 | 0.00 | 0.00 | 78 | 1011.8 |
| 20260510013328 | 21 | 141 | 3.2 | 9.7 | 0.00 | 0.00 | 0.00 | 78 | 1011.8 |
| 20260510013216 | 21 | 155 | 3.2 | 9.7 | 0.00 | 0.00 | 0.00 | 78 | 1011.8 |
| 20260510013128 | 21 | 130 | 3.2 | 9.7 | 0.00 | 0.00 | 0.00 | 77 | 1011.8 |
| 20260510013016 | 21 | 150 | 3.2 | 9.7 | 0.00 | 0.00 | 0.00 | 77 | 1011.8 |
| 20260510012924 | 21 | 127 | 4.8 | 9.7 | 0.00 | 0.00 | 0.00 | 77 | 1011.8 |
| 20260510012833 | 21 | 153 | 3.2 | 11.3 | 0.00 | 0.00 | 0.00 | 77 | 1011.7 |
| 20260510012719 | 21 | 149 | 3.2 | 11.3 | 0.00 | 0.00 | 0.00 | 77 | 1011.7 |
| 20260510012626 | 21 | 124 | 4.8 | 11.3 | 0.00 | 0.00 | 0.00 | 77 | 1011.7 |
| 20260510012519 | 21 | 128 | 3.2 | 11.3 | 0.00 | 0.00 | 0.00 | 77 | 1011.7 |
| 20260510012426 | 21 | 102 | 3.2 | 11.3 | 0.00 | 0.00 | 0.00 | 77 | 1011.7 |
| 20260510012314 | 21 | 157 | 4.8 | 11.3 | 0.00 | 0.00 | 0.00 | 77 | 1011.6 |
| 20260510012221 | 21 | 130 | 6.4 | 11.3 | 0.00 | 0.00 | 0.00 | 76 | 1011.6 |
| 20260510012127 | 21 | 125 | 6.4 | 11.3 | 0.00 | 0.00 | 0.00 | 76 | 1011.6 |
| 20260510012101 | 21 | 139 | 6.4 | 11.3 | 0.00 | 0.00 | 0.00 | 76 | 1011.6 |
| 20260510011814 | 21 | 135 | 3.2 | 9.7 | 0.00 | 0.00 | 0.00 | 76 | 1011.5 |
| 20260510011726 | 21 | 137 | 3.2 | 8.0 | 0.00 | 0.00 | 0.00 | 77 | 1011.5 |
| 20260510011650 | 21 | 136 | 3.2 | 11.3 | 0.00 | 0.00 | 0.00 | 76 | 1011.5 |
| 20260510011538 | 21 | 153 | 4.8 | 14.5 | 0.00 | 0.00 | 0.00 | 76 | 1011.6 |
| 20260510011425 | 21 | 130 | 4.8 | 14.5 | 0.00 | 0.00 | 0.00 | 76 | 1011.6 |
| 20260510011315 | 21 | 126 | 3.2 | 14.5 | 0.00 | 0.00 | 0.00 | 76 | 1011.6 |
| 20260510011223 | 21 | 136 | 3.2 | 14.5 | 0.00 | 0.00 | 0.00 | 76 | 1011.6 |
| 20260510011131 | 21 | 126 | 4.8 | 14.5 | 0.00 | 0.00 | 0.00 | 76 | 1011.6 |
| 20260510011017 | 21 | 156 | 6.4 | 14.5 | 0.00 | 0.00 | 0.00 | 76 | 1011.6 |
| 20260510010926 | 21 | 129 | 8.0 | 14.5 | 0.00 | 0.00 | 0.00 | 76 | 1011.6 |
| 20260510010818 | 21 | 142 | 9.7 | 14.5 | 0.00 | 0.00 | 0.00 | 76 | 1011.5 |
| 20260510010725 | 21 | 136 | 8.0 | 14.5 | 0.00 | 0.00 | 0.00 | 76 | 1011.5 |
| 20260510010654 | 21 | 123 | 8.0 | 14.5 | 0.00 | 0.00 | 0.00 | 76 | 1011.5 |
| 20260510010602 | 21 | 112 | 6.4 | 12.9 | 0.00 | 0.00 | 0.00 | 76 | 1011.5 |
| 20260510010316 | 22 | 146 | 6.4 | 11.3 | 0.00 | 0.00 | 0.00 | 75 | 1011.4 |
| 20260510010244 | 22 | 138 | 4.8 | 9.7 | 0.00 | 0.00 | 0.00 | 75 | 1011.4 |
| 20260510010115 | 22 | 133 | 4.8 | 8.0 | 0.00 | 0.00 | 0.00 | 75 | 1011.4 |
| 20260510010022 | 22 | 152 | 4.8 | 8.0 | 0.00 | 0.00 | 0.00 | 75 | 1011.4 |
| 20260510005950 | 22 | 152 | 3.2 | 8.0 | 0.00 | 0.00 | 0.00 | 75 | 1011.3 |
| 20260510005818 | 22 | 126 | 3.2 | 11.3 | 0.00 | 0.00 | 0.00 | 75 | 1011.3 |
| 20260510005724 | 22 | 150 | 3.2 | 11.3 | 0.00 | 0.00 | 0.00 | 75 | 1011.3 |
| 20260510005616 | 22 | 136 | 3.2 | 11.3 | 0.00 | 0.00 | 0.00 | 75 | 1011.3 |
| 20260510005524 | 22 | 205 | 3.2 | 11.3 | 0.00 | 0.00 | 0.00 | 75 | 1011.3 |
| 20260510005431 | 22 | 183 | 4.8 | 11.3 | 0.00 | 0.00 | 0.00 | 75 | 1011.2 |
| 20260510005318 | 22 | 154 | 4.8 | 11.3 | 0.00 | 0.00 | 0.00 | 75 | 1011.3 |
| 20260510005225 | 22 | 177 | 4.8 | 11.3 | 0.00 | 0.00 | 0.00 | 74 | 1011.3 |
| 20260510005112 | 22 | 190 | 6.4 | 11.3 | 0.00 | 0.00 | 0.00 | 74 | 1011.2 |
| 20260510005047 | 22 | 198 | 6.4 | 11.3 | 0.00 | 0.00 | 0.00 | 74 | 1011.2 |
| 20260510004822 | 22 | 136 | 6.4 | 11.3 | 0.00 | 0.00 | 0.00 | 74 | 1011.2 |
| 20260510004728 | 22 | 146 | 6.4 | 11.3 | 0.00 | 0.00 | 0.00 | 74 | 1011.3 |
| 20260510004617 | 22 | 140 | 4.8 | 11.3 | 0.00 | 0.00 | 0.00 | 74 | 1011.2 |
| 20260510004528 | 22 | 158 | 4.8 | 11.3 | 0.00 | 0.00 | 0.00 | 74 | 1011.2 |
| 20260510004415 | 22 | 143 | 6.4 | 14.5 | 0.00 | 0.00 | 0.00 | 74 | 1011.1 |
| 20260510004342 | 22 | 202 | 6.4 | 14.5 | 0.00 | 0.00 | 0.00 | 74 | 1011.1 |
| 20260510004230 | 22 | 196 | 6.4 | 14.5 | 0.00 | 0.00 | 0.00 | 74 | 1011.1 |
| 20260510004117 | 22 | 189 | 6.4 | 14.5 | 0.00 | 0.00 | 0.00 | 73 | 1011.1 |
| 20260510004044 | 22 | 202 | 6.4 | 14.5 | 0.00 | 0.00 | 0.00 | 73 | 1011.1 |
| 20260510003914 | 22 | 178 | 6.4 | 14.5 | 0.00 | 0.00 | 0.00 | 73 | 1011.0 |
| 20260510003821 | 22 | 178 | 6.4 | 14.5 | 0.00 | 0.00 | 0.00 | 73 | 1010.9 |
| 20260510003728 | 22 | 179 | 6.4 | 14.5 | 0.00 | 0.00 | 0.00 | 73 | 1010.9 |
| 20260510003635 | 22 | 186 | 6.4 | 9.7 | 0.00 | 0.00 | 0.00 | 73 | 1011.0 |
| 20260510003605 | 22 | 195 | 4.8 | 9.7 | 0.00 | 0.00 | 0.00 | 73 | 1010.9 |
| 20260510003322 | 22 | 197 | 3.2 | 9.7 | 0.00 | 0.00 | 0.00 | 73 | 1011.0 |
| 20260510003229 | 22 | 163 | 4.8 | 9.7 | 0.00 | 0.00 | 0.00 | 73 | 1010.9 |
| 20260510003117 | 22 | 196 | 6.4 | 9.7 | 0.00 | 0.00 | 0.00 | 72 | 1010.9 |
| 20260510003044 | 22 | 205 | 6.4 | 9.7 | 0.00 | 0.00 | 0.00 | 72 | 1010.9 |
| 20260510002930 | 22 | 210 | 6.4 | 11.3 | 0.00 | 0.00 | 0.00 | 72 | 1010.8 |
| 20260510002818 | 22 | 197 | 6.4 | 11.3 | 0.00 | 0.00 | 0.00 | 72 | 1010.8 |
| 20260510002729 | 22 | 198 | 6.4 | 11.3 | 0.00 | 0.00 | 0.00 | 72 | 1010.8 |
| 20260510002616 | 22 | 224 | 6.4 | 11.3 | 0.00 | 0.00 | 0.00 | 72 | 1010.8 |
| 20260510002544 | 22 | 196 | 6.4 | 11.3 | 0.00 | 0.00 | 0.00 | 72 | 1010.8 |
| 20260510002431 | 22 | 199 | 6.4 | 11.3 | 0.00 | 0.00 | 0.00 | 72 | 1010.7 |
| 20260510002319 | 22 | 199 | 4.8 | 11.3 | 0.00 | 0.00 | 0.00 | 71 | 1010.8 |
| 20260510002226 | 23 | 208 | 4.8 | 11.3 | 0.00 | 0.00 | 0.00 | 71 | 1010.8 |
| 20260510002137 | 23 | 210 | 3.2 | 11.3 | 0.00 | 0.00 | 0.00 | 71 | 1010.8 |
| 20260510002047 | 23 | 167 | 3.2 | 11.3 | 0.00 | 0.00 | 0.00 | 70 | 1010.8 |
| 20260510001820 | 23 | 166 | 3.2 | 12.9 | 0.00 | 0.00 | 0.00 | 69 | 1010.8 |
| 20260510001728 | 23 | 191 | 4.8 | 12.9 | 0.00 | 0.00 | 0.00 | 69 | 1010.8 |
| 20260510001636 | 23 | 194 | 6.4 | 12.9 | 0.00 | 0.00 | 0.00 | 69 | 1010.6 |
| 20260510001526 | 23 | 211 | 8.0 | 12.9 | 0.00 | 0.00 | 0.00 | 69 | 1010.6 |
| 20260510001415 | 23 | 165 | 8.0 | 12.9 | 0.00 | 0.00 | 0.00 | 69 | 1010.7 |
| 20260510001322 | 23 | 186 | 8.0 | 12.9 | 0.00 | 0.00 | 0.00 | 68 | 1010.7 |
| 20260510001231 | 23 | 178 | 8.0 | 12.9 | 0.00 | 0.00 | 0.00 | 68 | 1010.7 |
| 20260510001118 | 23 | 165 | 6.4 | 11.3 | 0.00 | 0.00 | 0.00 | 67 | 1010.7 |
| 20260510001030 | 23 | 188 | 6.4 | 9.7 | 0.00 | 0.00 | 0.00 | 66 | 1010.7 |
| 20260510000917 | 23 | 178 | 3.2 | 8.0 | 0.00 | 0.00 | 0.00 | 66 | 1010.7 |
| 20260510000845 | 23 | 204 | 3.2 | 6.4 | 0.00 | 0.00 | 0.00 | 65 | 1010.7 |
| 20260510000733 | 23 | 203 | 1.6 | 4.8 | 0.00 | 0.00 | 0.00 | 64 | 1010.7 |
| 20260510000619 | 23 | 203 | 1.6 | 4.8 | 0.00 | 0.00 | 0.00 | 65 | 1010.7 |
| 20260510000554 | 23 | 203 | 1.6 | 4.8 | 0.00 | 0.00 | 0.00 | 65 | 1010.7 |
| 20260510000328 | 23 | 348 | 1.6 | 3.2 | 0.00 | 0.00 | 0.00 | 65 | 1010.6 |
| 20260510000218 | 23 | 348 | 1.6 | 1.6 | 0.00 | 0.00 | 0.00 | 65 | 1010.6 |
| 20260510000124 | 23 | 348 | 0.0 | 1.6 | 0.00 | 0.00 | 0.00 | 65 | 1010.6 |
| 20260510000052 | 23 | 348 | 0.0 | 1.6 | 0.00 | 0.00 | 0.00 | 65 | 1010.7 |
| 20260509235920 | 23 | 348 | 0.0 | 1.6 | 0.00 | 0.00 | 0.00 | 64 | 1010.6 |
| 20260509235831 | 23 | 348 | 0.0 | 1.6 | 0.00 | 0.00 | 0.00 | 63 | 1010.6 |
| 20260509235718 | 23 | 348 | 0.0 | 1.6 | 0.00 | 0.00 | 0.00 | 63 | 1010.6 |
| 20260509235625 | 23 | 348 | 0.0 | 1.6 | 0.00 | 0.00 | 0.00 | 63 | 1010.6 |
| 20260509235531 | 23 | 348 | 0.0 | 1.6 | 0.00 | 0.00 | 0.00 | 62 | 1010.5 |
| 20260509235439 | 23 | 348 | 0.0 | 1.6 | 0.00 | 0.00 | 0.00 | 63 | 1010.5 |
| 20260509235326 | 23 | 348 | 0.0 | 0.0 | 0.00 | 0.00 | 0.00 | 63 | 1010.5 |
| 20260509235238 | 23 | 348 | 0.0 | 1.6 | 0.00 | 0.00 | 0.00 | 62 | 1010.5 |
| 20260509235123 | 23 | 348 | 0.0 | 1.6 | 0.00 | 0.00 | 0.00 | 63 | 1010.5 |
| 20260509235054 | 23 | 348 | 0.0 | 1.6 | 0.00 | 0.00 | 0.00 | 62 | 1010.5 |
| 20260509234827 | 23 | 348 | 0.0 | 1.6 | 0.00 | 0.00 | 0.00 | 63 | 1010.5 |
| 20260509234714 | 23 | 348 | 0.0 | 1.6 | 0.00 | 0.00 | 0.00 | 63 | 1010.6 |
| 20260509234627 | 23 | 348 | 0.0 | 1.6 | 0.00 | 0.00 | 0.00 | 64 | 1010.6 |
| 20260509234533 | 23 | 348 | 0.0 | 1.6 | 0.00 | 0.00 | 0.00 | 64 | 1010.5 |
| 20260509234420 | 23 | 348 | 0.0 | 1.6 | 0.00 | 0.00 | 0.00 | 64 | 1010.4 |
| 20260509234326 | 23 | 348 | 0.0 | 1.6 | 0.00 | 0.00 | 0.00 | 63 | 1010.4 |
| 20260509234213 | 23 | 348 | 0.0 | 4.8 | 0.00 | 0.00 | 0.00 | 63 | 1010.4 |
| 20260509234121 | 23 | 348 | 0.0 | 4.8 | 0.00 | 0.00 | 0.00 | 63 | 1010.5 |
| 20260509234032 | 23 | 348 | 0.0 | 4.8 | 0.00 | 0.00 | 0.00 | 63 | 1010.5 |
| 20260509233920 | 23 | 348 | 0.0 | 4.8 | 0.00 | 0.00 | 0.00 | 63 | 1010.4 |
| 20260509233828 | 23 | 348 | 0.0 | 4.8 | 0.00 | 0.00 | 0.00 | 63 | 1010.4 |
| 20260509233715 | 23 | 348 | 1.6 | 4.8 | 0.00 | 0.00 | 0.00 | 63 | 1010.3 |
| 20260509233622 | 23 | 348 | 1.6 | 4.8 | 0.00 | 0.00 | 0.00 | 63 | 1010.3 |
| 20260509233557 | 23 | 348 | 3.2 | 4.8 | 0.00 | 0.00 | 0.00 | 63 | 1010.3 |
| 20260509233331 | 23 | 348 | 3.2 | 4.8 | 0.00 | 0.00 | 0.00 | 62 | 1010.2 |
| 20260509233219 | 24 | 344 | 1.6 | 4.8 | 0.00 | 0.00 | 0.00 | 62 | 1010.2 |
| 20260509233126 | 23 | 321 | 1.6 | 4.8 | 0.00 | 0.00 | 0.00 | 62 | 1010.2 |
| 20260509233017 | 24 | 321 | 3.2 | 4.8 | 0.00 | 0.00 | 0.00 | 62 | 1010.4 |
| 20260509232945 | 24 | 321 | 3.2 | 4.8 | 0.00 | 0.00 | 0.00 | 62 | 1010.4 |
| 20260509232852 | 24 | 312 | 3.2 | 4.8 | 0.00 | 0.00 | 0.00 | 63 | 1010.4 |
| 20260509232718 | 24 | 304 | 1.6 | 3.2 | 0.00 | 0.00 | 0.00 | 62 | 1010.4 |
| 20260509232626 | 24 | 304 | 1.6 | 3.2 | 0.00 | 0.00 | 0.00 | 62 | 1010.4 |
| 20260509232513 | 24 | 304 | 0.0 | 4.8 | 0.00 | 0.00 | 0.00 | 63 | 1010.5 |
| 20260509232420 | 24 | 304 | 1.6 | 4.8 | 0.00 | 0.00 | 0.00 | 63 | 1010.6 |
| 20260509232312 | 24 | 304 | 1.6 | 4.8 | 0.00 | 0.00 | 0.00 | 63 | 1010.5 |
| 20260509232220 | 24 | 304 | 1.6 | 4.8 | 0.00 | 0.00 | 0.00 | 63 | 1010.5 |
| 20260509232128 | 24 | 304 | 1.6 | 4.8 | 0.00 | 0.00 | 0.00 | 62 | 1010.5 |
| 20260509232058 | 24 | 304 | 1.6 | 4.8 | 0.00 | 0.00 | 0.00 | 62 | 1010.6 |
| 20260509231816 | 24 | 304 | 3.2 | 4.8 | 0.00 | 0.00 | 0.00 | 62 | 1010.6 |
| 20260509231724 | 24 | 306 | 3.2 | 4.8 | 0.00 | 0.00 | 0.00 | 62 | 1010.6 |
| 20260509231612 | 24 | 306 | 3.2 | 4.8 | 0.00 | 0.00 | 0.00 | 62 | 1010.5 |
| 20260509231518 | 24 | 299 | 1.6 | 4.8 | 0.00 | 0.00 | 0.00 | 62 | 1010.5 |
| 20260509231447 | 24 | 294 | 1.6 | 4.8 | 0.00 | 0.00 | 0.00 | 62 | 1010.5 |
| 20260509231314 | 24 | 286 | 1.6 | 6.4 | 0.00 | 0.00 | 0.00 | 62 | 1010.5 |
| 20260509231226 | 24 | 286 | 1.6 | 6.4 | 0.00 | 0.00 | 0.00 | 62 | 1010.5 |
| 20260509231113 | 24 | 263 | 1.6 | 6.4 | 0.00 | 0.00 | 0.00 | 63 | 1010.5 |
| 20260509231021 | 24 | 255 | 1.6 | 8.0 | 0.00 | 0.00 | 0.00 | 63 | 1010.4 |
| 20260509230930 | 24 | 255 | 1.6 | 8.0 | 0.00 | 0.00 | 0.00 | 63 | 1010.4 |
| 20260509230837 | 24 | 271 | 3.2 | 8.0 | 0.00 | 0.00 | 0.00 | 62 | 1010.4 |
| 20260509230723 | 24 | 273 | 3.2 | 8.0 | 0.00 | 0.00 | 0.00 | 62 | 1010.4 |
| 20260509230635 | 24 | 300 | 3.2 | 8.0 | 0.00 | 0.00 | 0.00 | 61 | 1010.4 |
| 20260509230605 | 24 | 348 | 3.2 | 8.0 | 0.00 | 0.00 | 0.00 | 61 | 1010.4 |
| 20260509230318 | 24 | 315 | 4.8 | 8.0 | 0.00 | 0.00 | 0.00 | 61 | 1010.5 |
| 20260509230225 | 24 | 321 | 4.8 | 8.0 | 0.00 | 0.00 | 0.00 | 61 | 1010.5 |
| 20260509230116 | 24 | 340 | 3.2 | 6.4 | 0.00 | 0.00 | 0.00 | 61 | 1010.4 |
| 20260509230022 | 24 | 346 | 3.2 | 4.8 | 0.00 | 0.00 | 0.00 | 61 | 1010.4 |
| 20260509225930 | 24 | 346 | 3.2 | 4.8 | 0.00 | 0.00 | 0.00 | 61 | 1010.4 |
| 20260509225838 | 25 | 346 | 3.2 | 6.4 | 0.00 | 0.00 | 0.00 | 60 | 1010.4 |
| 20260509225725 | 24 | 346 | 3.2 | 6.4 | 0.00 | 0.00 | 0.00 | 60 | 1010.4 |
| 20260509225613 | 25 | 289 | 3.2 | 6.4 | 0.00 | 0.00 | 0.00 | 61 | 1010.4 |
| 20260509225523 | 25 | 304 | 3.2 | 6.4 | 0.00 | 0.00 | 0.00 | 61 | 1010.4 |
| 20260509225431 | 25 | 252 | 3.2 | 6.4 | 0.00 | 0.00 | 0.00 | 61 | 1010.5 |
| 20260509225337 | 25 | 267 | 3.2 | 8.0 | 0.00 | 0.00 | 0.00 | 61 | 1010.3 |
| 20260509225244 | 25 | 293 | 3.2 | 8.0 | 0.00 | 0.00 | 0.00 | 60 | 1010.3 |
| 20260509225130 | 25 | 293 | 3.2 | 8.0 | 0.00 | 0.00 | 0.00 | 61 | 1010.3 |
| 20260509225105 | 25 | 310 | 3.2 | 8.0 | 0.00 | 0.00 | 0.00 | 60 | 1010.2 |